                ,  0.290,  0.386,  0.483,  0.580,  0.676,  0.773,  0.869,  0.966,  1.063,  1.159,  1.256,  1.352,  1.449,  1.545,  1.642,  1.739,  1.835,  1.932,  2.028,  2.125,  2.222,  2.318,  2.415,  2.511,  2.608,  2.705,  2.801,  2.898,  2.994,  3.091,  3.188,  3.284,  3.381,  3.477,  3.574,  3.671,  3.767,  3.864,  3.960,  4.057,  4.153,  4.250,  4.347,  4.443,  4.540,  4.636,  4.733,  4.830,  4.926,  5.023,  5.119,  5.216,  5.313,  5.409,  5.506,  5.602,  5.699,  5.796
2000/11/19 00:00,  999.0,  999.0,  999.0,    2.1,  999.0,  999.0,    2.0,  999.0,    0.9,   -0.1,    0.6,  999.0,  999.0,  999.0,  999.0,   -2.7,  999.0,  999.0,  999.0,  999.0,  999.0,  999.0,  999.0,  999.0,  999.0,  999.0,  999.0,  999.0,  999.0,  999.0,  999.0,  999.0,  999.0,  999.0,  999.0,  999.0,  999.0,  999.0,  999.0,  999.0,  999.0,  999.0,  999.0,  999.0,  999.0,  999.0,  999.0,  999.0,  999.0,  999.0,  999.0,  999.0,  999.0,  999.0,  999.0,  999.0,  999.0,  999.0
2000/11/19 00:10,  999.0,  999.0,  999.0,  999.0,    3.7,    3.2,    2.1,    0.8,    0.6,    2.3,    2.5,  999.0,  999.0,   -0.4,  999.0,   -1.6,   -2.2,  999.0,  999.0,  999.0,  999.0,  999.0,  999.0,  999.0,  999.0,  999.0,  999.0,  999.0,  999.0,  999.0,  999.0,  999.0,  999.0,  999.0,  999.0,  999.0,   21.0,  999.0,  999.0,   20.4,   21.2,   21.0,  999.0,  999.0,  999.0,   20.6,   21.0,   20.7,  999.0,   21.2,  999.0,  999.0,  999.0,  999.0,  999.0,  999.0,  999.0,  999.0
2000/11/19 00:20,  999.0,    1.4,    2.8,  999.0,    1.7,    1.5,    2.0,    1.7,    1.5,    0.1,   -0.2,    0.3,   -0.6,   -0.2,   -0.8,   -0.4,   -1.9,  999.0,  999.0,  999.0,  999.0,  999.0,  999.0,  999.0,  999.0,  999.0,  999.0,  999.0,  999.0,  999.0,  999.0,  999.0,  999.0,  999.0,  999.0,  999.0,  999.0,  999.0,  999.0,  999.0,  999.0,  999.0,  999.0,  999.0,  999.0,  999.0,  999.0,  999.0,  999.0,  999.0,  999.0,  999.0,  999.0,  999.0,  999.0,  999.0,  999.0,  999.0
2000/11/19 00:30,  999.0,  999.0,  999.0,  999.0,   -0.1,  999.0,    2.9,    2.4,    2.0,    2.2,    1.8,    1.0,  999.0,   -1.6,   -2.1,   -1.3,  999.0,  999.0,  999.0,  999.0,  999.0,  999.0,  999.0,  999.0,  999.0,  999.0,  999.0,  999.0,  999.0,  999.0,  999.0,  999.0,  999.0,  999.0,  999.0,  999.0,  999.0,  999.0,  999.0,  999.0,  999.0,  999.0,  999.0,  999.0,  999.0,  999.0,  999.0,  999.0,  999.0,  999.0,  999.0,  999.0,  999.0,  999.0,  999.0,  999.0,  999.0,  999.0
2000/11/19 00:40,  999.0,    2.6,  999.0,   -0.1,   -0.6,    0.9,    1.5,    1.4,    1.3,    0.9,  999.0,   -0.1,   -0.1,   -1.1,   -1.7,   -2.6,   -2.4,  999.0,  999.0,  999.0,  999.0,  999.0,  999.0,  999.0,  999.0,  999.0,  999.0,  999.0,  999.0,  999.0,  999.0,  999.0,  999.0,  999.0,  999.0,  999.0,  999.0,  999.0,  999.0,  999.0,  999.0,  999.0,  999.0,  999.0,  999.0,  999.0,  999.0,  999.0,  999.0,  999.0,  999.0,  999.0,  999.0,  999.0,  999.0,  999.0,  999.0,  999.0
2000/11/19 00:50,  999.0,    3.4,  999.0,    1.4,   -4.0,   -1.1,   -0.1,    2.1,    2.1,    1.7,  999.0,  999.0,    0.1,   -1.6,   -3.3,   -2.6,   -0.6,  999.0,  999.0,  999.0,  999.0,  999.0,  999.0,  999.0,  999.0,  999.0,  999.0,  999.0,  999.0,  999.0,  999.0,  999.0,  999.0,  999.0,  999.0,  999.0,   21.3,  999.0,  999.0,   21.5,  999.0,  999.0,  999.0,  999.0,  999.0,  999.0,  999.0,  999.0,  999.0,  999.0,  999.0,  999.0,  999.0,  999.0,  999.0,  999.0,  999.0,  999.0
2000/11/19 01:00,  999.0,   -0.2,  999.0,    4.3,    3.0,    4.2,  999.0,    0.8,    0.5,   -0.1,   -1.0,   -0.6,    0.1,   -0.8,   -1.9,   -2.6,   -1.5,  999.0,  999.0,  999.0,  999.0,  999.0,  999.0,  999.0,  999.0,  999.0,  999.0,  999.0,  999.0,  999.0,  999.0,  999.0,  999.0,  999.0,  999.0,  999.0,  999.0,  999.0,  999.0,  999.0,  999.0,  999.0,  999.0,  999.0,  999.0,  999.0,  999.0,  999.0,  999.0,  999.0,  999.0,  999.0,  999.0,  999.0,  999.0,  999.0,  999.0,  999.0
2000/11/19 01:10,  999.0,  999.0,    0.2,  999.0,  999.0,  999.0,    2.6,    1.6,    0.9,    0.3,   -0.5,   -0.2,   -2.6,   -2.8,  999.0,   -2.7,  999.0,   -1.3,  999.0,  999.0,  999.0,  999.0,  999.0,  999.0,  999.0,  999.0,  999.0,  999.0,  999.0,  999.0,  999.0,  999.0,  999.0,  999.0,  999.0,  999.0,  999.0,  999.0,  999.0,  999.0,  999.0,  999.0,  999.0,  999.0,  999.0,  999.0,  999.0,  999.0,  999.0,  999.0,  999.0,  999.0,  999.0,  999.0,  999.0,  999.0,  999.0,  999.0
2000/11/19 01:20,  999.0,  999.0,  999.0,  999.0,    5.5,    1.6,    2.5,  999.0,  999.0,   -0.1,   -0.9,  999.0,   -0.7,   -0.8,   -0.9,  999.0,  999.0,   -1.4,  999.0,  999.0,  999.0,  999.0,  999.0,  999.0,  999.0,  999.0,  999.0,  999.0,  999.0,  999.0,  999.0,  999.0,  999.0,  999.0,  999.0,  999.0,  999.0,   21.6,  999.0,  999.0,   21.0,   20.8,   21.1,   21.0,   21.0,  999.0,  999.0,   21.2,  999.0,   21.0,   21.2,   21.5,   22.3,  999.0,  999.0,  999.0,  999.0,  999.0
2000/11/19 01:30,  999.0,  999.0,    0.1,    3.6,    6.9,  999.0,    3.7,    4.2,  999.0,   -0.5,  999.0,  999.0,  999.0,  999.0,  999.0,  999.0,  999.0,  999.0,  999.0,  999.0,  999.0,  999.0,  999.0,  999.0,  999.0,  999.0,  999.0,  999.0,  999.0,  999.0,  999.0,  999.0,  999.0,  999.0,  999.0,  999.0,  999.0,  999.0,  999.0,  999.0,  999.0,  999.0,  999.0,  999.0,  999.0,  999.0,  999.0,  999.0,  999.0,  999.0,  999.0,  999.0,  999.0,  999.0,  999.0,  999.0,  999.0,  999.0
2000/11/19 01:40,  999.0,  999.0,    1.0,   -0.1,    5.3,    0.7,    2.0,  999.0,    0.1,   -0.3,    0.2,  999.0,    1.3,  999.0,  999.0,  999.0,  999.0,  999.0,  999.0,  999.0,  999.0,  999.0,  999.0,  999.0,  999.0,  999.0,  999.0,  999.0,  999.0,  999.0,  999.0,  999.0,  999.0,  999.0,  999.0,  999.0,  999.0,  999.0,  999.0,  999.0,  999.0,  999.0,  999.0,  999.0,  999.0,  999.0,  999.0,  999.0,  999.0,  999.0,  999.0,  999.0,  999.0,  999.0,  999.0,  999.0,  999.0,  999.0
2000/11/19 01:50,  999.0,   -1.5,   -1.1,    2.4,    2.9,    3.2,    2.2,    5.2,    0.6,    0.4,  999.0,  999.0,    0.7,  999.0,  999.0,  999.0,  999.0,  999.0,  999.0,  999.0,  999.0,  999.0,  999.0,  999.0,  999.0,  999.0,  999.0,  999.0,  999.0,  999.0,  999.0,  999.0,  999.0,  999.0,  999.0,  999.0,  999.0,  999.0,  999.0,  999.0,  999.0,  999.0,  999.0,  999.0,  999.0,  999.0,  999.0,  999.0,  999.0,  999.0,  999.0,  999.0,  999.0,  999.0,  999.0,  999.0,  999.0,  999.0
2000/11/19 02:00,  999.0,  999.0,  999.0,    2.8,   -0.7,    1.0,    2.9,    3.7,    0.8,   -0.1,   -0.7,  999.0,  999.0,   -4.4,   -0.0,  999.0,  999.0,  999.0,  999.0,  999.0,  999.0,  999.0,  999.0,   -3.8,  999.0,  999.0,  999.0,  999.0,  999.0,  999.0,  999.0,  999.0,  999.0,  999.0,  999.0,  999.0,  999.0,  999.0,  999.0,  999.0,  999.0,  999.0,  999.0,  999.0,  999.0,  999.0,  999.0,  999.0,  999.0,  999.0,  999.0,  999.0,  999.0,  999.0,  999.0,  999.0,  999.0,  999.0
2000/11/19 02:10,  999.0,  999.0,  999.0,  999.0,    1.8,    0.5,    1.4,    1.2,   -0.2,   -0.6,   -1.1,  999.0,  999.0,  999.0,  999.0,  999.0,  999.0,  999.0,  999.0,  999.0,   -2.9,  999.0,  999.0,  999.0,  999.0,  999.0,  999.0,  999.0,  999.0,  999.0,  999.0,  999.0,  999.0,  999.0,  999.0,  999.0,  999.0,  999.0,  999.0,  999.0,  999.0,  999.0,  999.0,  999.0,  999.0,  999.0,  999.0,  999.0,  999.0,  999.0,  999.0,  999.0,  999.0,  -42.0,  999.0,  999.0,  999.0,  999.0
2000/11/19 02:20,  999.0,    1.5,    1.5,    0.6,    0.8,    1.1,    1.1,    1.4,   -0.4,    0.2,    1.7,  999.0,  999.0,  999.0,  999.0,  999.0,  999.0,  999.0,  999.0,    2.3,  999.0,  999.0,  999.0,  999.0,  999.0,  999.0,  999.0,  999.0,  999.0,  999.0,  999.0,  999.0,  999.0,  999.0,  999.0,  999.0,  999.0,  999.0,  999.0,  999.0,  999.0,  999.0,  999.0,  999.0,  999.0,  999.0,  999.0,  999.0,  -41.7,  -41.9,  999.0,  -41.5,  -41.5,  -42.3,  999.0,  999.0,  999.0,  999.0
2000/11/19 02:30,  999.0,   -2.7,   -2.0,   -0.9,    0.9,    1.0,    1.3,    1.3,    1.4,  999.0,    0.3,  999.0,  999.0,  999.0,    0.9,    1.1,  999.0,  999.0,  999.0,  999.0,  999.0,  999.0,  999.0,  999.0,  999.0,  999.0,  999.0,  999.0,  999.0,  999.0,  999.0,  999.0,  999.0,  999.0,  999.0,  999.0,  999.0,  999.0,  999.0,  999.0,  999.0,  999.0,  999.0,  999.0,  999.0,  999.0,  -41.6,  -41.5,  -41.4,  999.0,  -42.0,  -41.6,  999.0,  -41.6,  -41.2,  999.0,  999.0,  -42.0
2000/11/19 02:40,  999.0,  999.0,   -0.6,   -0.3,    1.4,   -0.2,    0.4,   -0.0,    0.1,  999.0,   -2.7,  999.0,  999.0,  999.0,  999.0,  999.0,  999.0,  999.0,  999.0,  999.0,  999.0,  999.0,  999.0,  999.0,  999.0,  999.0,  999.0,  999.0,  999.0,  999.0,  999.0,  999.0,  999.0,  999.0,  999.0,  999.0,  999.0,  999.0,  999.0,  999.0,  999.0,  999.0,  999.0,  999.0,  999.0,  999.0,  999.0,  999.0,  999.0,  999.0,  999.0,  999.0,  999.0,  999.0,  999.0,  999.0,  999.0,  999.0
2000/11/19 02:50,  999.0,  999.0,    5.3,    0.3,   -1.4,    2.1,    2.1,    1.3,    0.1,   -0.4,  999.0,    1.0,   -1.4,    0.3,  999.0,  999.0,  999.0,  999.0,  999.0,  999.0,  999.0,  999.0,  999.0,  999.0,  999.0,  999.0,  999.0,  999.0,  999.0,  999.0,  999.0,  999.0,  999.0,  999.0,  999.0,  999.0,  999.0,  999.0,  999.0,  999.0,  999.0,  999.0,  999.0,  999.0,  999.0,  999.0,  999.0,  999.0,  999.0,   -6.6,   -6.5,  999.0,  999.0,  999.0,  999.0,   -3.5,  999.0,  999.0
2000/11/19 03:00,  999.0,  999.0,   -0.1,   -0.7,    1.1,    2.2,    1.3,    0.8,    0.7,   -0.4,   -0.2,  999.0,   -0.4,  999.0,  999.0,  999.0,  999.0,  999.0,  999.0,  999.0,  999.0,  999.0,  999.0,  999.0,  999.0,  999.0,  999.0,  999.0,  999.0,  -12.8,  999.0,  -16.7,  999.0,  -10.0,  -15.3,  999.0,  -12.4,  999.0,  -11.4,   -7.7,   -8.8,  -11.3,  -10.8,  999.0,   -9.9,   -9.1,   -6.3,   -5.4,   -8.1,   -6.2,   -3.7,  999.0,   -4.7,   -0.2,   -3.6,  999.0,   -3.7,   -3.6
2000/11/19 03:10,  999.0,  999.0,    0.3,    1.1,   -3.2,   -0.5,    0.7,    0.3,    0.8,    1.5,    0.2,   -0.2,  999.0,  999.0,  999.0,  999.0,  999.0,  999.0,  999.0,  999.0,  999.0,  -17.9,  -16.9,  -15.9,  999.0,  999.0,  999.0,  999.0,  999.0,   -3.5,   -3.8,   -3.0,   -6.0,   -2.8,   -2.3,   -2.0,   -1.3,   -0.6,   -1.0,   -0.7,   -0.4,   -0.6,   -1.0,   -0.9,   -0.9,   -0.9,  999.0,   -0.6,   -0.8,  999.0,  999.0,   -0.7,   -0.8,   -0.7,   -0.1,   -0.3,   -0.4,   -1.1
2000/11/19 03:20,  999.0,    0.1,    1.4,    1.1,   -0.8,   -0.2,    0.6,    0.3,    0.4,   -0.1,   -0.6,    0.1,   -0.8,  999.0,   -0.7,   -0.1,  999.0,  999.0,  999.0,  999.0,  999.0,  -12.3,  -11.9,   -9.4,  999.0,   -7.7,   -6.4,  999.0,  999.0,   -2.9,   -1.4,   -1.6,   -1.0,   -0.9,   -0.4,  999.0,   -0.9,   -1.2,   -0.8,    0.1,  999.0,   -1.4,   -0.8,  999.0,   -0.9,   -0.6,   -1.1,   -1.1,   -0.3,   -0.4,  999.0,  999.0,   -0.6,   -0.7,  999.0,   -0.2,   -0.3,  999.0
2000/11/19 03:30,  999.0,    1.9,    1.2,    2.0,   -0.6,   -1.4,    0.2,    0.1,    0.5,   -0.0,   -0.7,   -1.0,  999.0,  999.0,  999.0,  999.0,  999.0,  999.0,  999.0,  999.0,  -16.0,  -16.2,  -13.5,  -13.3,  999.0,  -10.6,  -10.3,  999.0,   -8.3,   -7.5,   -5.2,   -5.5,   -0.7,   -2.9,   -0.1,   -1.3,   -0.9,  999.0,   -0.4,   -1.0,   -0.7,   -0.5,   -1.4,   -1.6,   -1.5,   -0.4,   -1.4,   -0.6,   -1.0,   -0.8,   -0.1,  999.0,   -0.3,   -1.2,   -0.7,   -0.4,   -0.5,   -1.5
2000/11/19 03:40,  999.0,  999.0,    4.2,   -0.6,    5.6,    0.5,    0.3,    1.2,    1.1,    0.6,  999.0,   -0.3,   -2.1,  999.0,  999.0,  999.0,  999.0,  999.0,  999.0,  999.0,  -14.5,  -13.1,  -11.7,  -10.9,   -9.9,   -8.1,   -7.3,   -5.9,   -5.3,   -3.0,   -1.7,   -1.1,   -0.2,   -0.5,   -0.4,   -0.6,   -0.8,  999.0,   -0.8,   -1.1,   -0.5,   -1.0,  999.0,   -0.9,   -0.5,   -0.7,   -0.4,   -0.5,   -0.4,   -0.9,   -0.5,   -0.3,   -0.7,   -1.0,   -0.8,   -0.0,   -0.5,    0.0
2000/11/19 03:50,  999.0,  999.0,  999.0,    1.4,   -0.8,    0.0,   -0.2,    0.4,    0.0,   -0.2,  999.0,    0.7,  999.0,  999.0,  999.0,  999.0,  999.0,  999.0,  999.0,  999.0,  -11.2,  -10.9,  -10.0,   -9.9,  -15.8,  -10.4,  -10.6,   -5.7,   -5.0,  999.0,   -6.2,  999.0,   -2.7,   -1.4,   -5.2,   -5.0,   -4.2,   -3.8,  999.0,    0.8,   -0.8,  999.0,   -2.5,   -1.2,   -1.4,   -1.3,   -0.9,   -1.5,  999.0,   -0.9,   -1.2,   -1.1,   -0.5,   -0.9,   -0.9,   -0.7,   -0.9,   -0.8
2000/11/19 04:00,  999.0,  999.0,   -3.3,  999.0,  999.0,    0.1,    0.1,    1.0,    2.0,    1.3,    0.5,   -0.0,  999.0,  999.0,  999.0,  999.0,  999.0,  999.0,  999.0,  999.0,  999.0,  -14.0,  -13.7,  999.0,  -12.2,  -11.8,  -11.7,  999.0,   -9.9,   -9.5,   -8.4,   -8.1,   -6.8,   -6.9,  999.0,   -5.9,   -4.9,  999.0,  999.0,   -2.9,   -2.4,   -1.8,  999.0,  999.0,   -0.7,   -0.4,   -1.1,   -1.0,   -0.5,  999.0,   -0.8,   -0.7,   -0.6,   -1.2,   -1.0,   -0.9,   -1.6,   -1.1
2000/11/19 04:10,  999.0,   -2.1,   -2.1,   -4.1,   -2.6,    0.2,   -0.0,   -0.4,    2.4,  999.0,  999.0,   -0.8,   -1.1,  999.0,  999.0,  999.0,  999.0,  999.0,  999.0,  999.0,  999.0,  999.0,  999.0,  999.0,  -11.2,  999.0,  999.0,   -9.2,   -8.6,  999.0,  999.0,  999.0,   -6.0,   -5.4,  999.0,   -4.7,  999.0,  999.0,   -2.3,  999.0,   -1.1,  999.0,  999.0,    0.2,   -0.9,  999.0,  999.0,  999.0,   -0.7,  999.0,  999.0,  999.0,   -1.2,   -1.1,  999.0,  999.0,   -1.0,  999.0
2000/11/19 04:20,  999.0,   -0.8,  999.0,  999.0,   -1.5,   -2.6,    0.5,    0.5,   -0.0,   -0.3,   -0.2,   -0.5,    1.7,    2.9,  999.0,  999.0,  999.0,  999.0,  999.0,  999.0,  999.0,  999.0,  999.0,  999.0,  999.0,  999.0,  999.0,  999.0,  999.0,  999.0,  999.0,  999.0,  999.0,  999.0,  999.0,  999.0,  999.0,  999.0,  999.0,  999.0,  999.0,  999.0,  999.0,  999.0,  999.0,  999.0,  999.0,  999.0,  999.0,  999.0,  999.0,  999.0,  999.0,  999.0,  999.0,  999.0,  999.0,  999.0
2000/11/19 04:30,  999.0,   -3.1,   -1.5,   -6.6,    1.3,  999.0,    0.2,    1.7,    2.5,  999.0,   -0.3,  999.0,    3.0,    0.6,  999.0,  999.0,  999.0,  999.0,  999.0,  999.0,  999.0,  999.0,  999.0,  999.0,  999.0,  999.0,  999.0,  999.0,  999.0,  999.0,  999.0,  999.0,  999.0,  999.0,  999.0,  999.0,  999.0,  999.0,  999.0,  999.0,  999.0,  999.0,  999.0,  999.0,  999.0,  999.0,  999.0,  999.0,  999.0,  999.0,  999.0,  999.0,  999.0,  999.0,  999.0,  999.0,  999.0,  999.0
2000/11/19 04:40,  999.0,   -1.8,   -4.4,   -1.7,    1.3,    0.0,    0.5,   -1.3,  999.0,    2.0,  999.0,  999.0,  999.0,  999.0,  999.0,  999.0,    9.3,  999.0,  999.0,  999.0,  999.0,  999.0,  999.0,  999.0,  999.0,  999.0,  999.0,  999.0,  999.0,  999.0,  999.0,  999.0,  999.0,  999.0,  999.0,  999.0,  999.0,  999.0,  999.0,  999.0,  999.0,  999.0,  999.0,  999.0,  999.0,  999.0,  999.0,  999.0,  999.0,  999.0,  999.0,  999.0,  999.0,  999.0,  999.0,  999.0,  999.0,  999.0
2000/11/19 04:50,  999.0,  999.0,   -1.2,    0.7,    0.3,   -2.5,   -0.3,    3.9,    6.1,    3.1,   -1.3,  999.0,  999.0,  999.0,  999.0,  999.0,  999.0,  999.0,  999.0,  999.0,  999.0,  999.0,  999.0,  999.0,  999.0,  999.0,  999.0,  999.0,  999.0,  999.0,  999.0,  999.0,  999.0,  999.0,  999.0,  999.0,  999.0,  999.0,  999.0,  999.0,  999.0,  999.0,  999.0,  999.0,  999.0,  999.0,  999.0,  999.0,  999.0,  999.0,  999.0,  999.0,  999.0,  999.0,  999.0,  999.0,  999.0,  999.0
2000/11/19 05:00,  999.0,  999.0,    1.1,    0.9,   -1.7,    5.7,   -0.3,    1.3,    2.8,    5.1,  999.0,  999.0,  999.0,  999.0,  999.0,    7.7,    9.9,  999.0,  999.0,  999.0,  999.0,  999.0,  999.0,  999.0,  999.0,  999.0,  999.0,  999.0,  999.0,  999.0,  999.0,  999.0,  999.0,  999.0,  999.0,  999.0,  999.0,  999.0,  999.0,  999.0,  999.0,  999.0,  999.0,  999.0,  999.0,  999.0,  999.0,  999.0,  999.0,  999.0,  999.0,  999.0,  999.0,  999.0,  999.0,  999.0,  999.0,  999.0
2000/11/19 05:10,  999.0,   -0.0,    0.0,  999.0,    1.7,    1.1,    3.9,    1.5,    1.1,    0.7,    0.2,    5.7,  999.0,  999.0,  999.0,  999.0,  999.0,  999.0,  999.0,  999.0,  999.0,  999.0,  999.0,  999.0,  999.0,  999.0,  999.0,  999.0,  999.0,  999.0,  999.0,  999.0,  999.0,  999.0,  999.0,  999.0,  999.0,  999.0,  999.0,  999.0,  999.0,  999.0,  999.0,  999.0,  999.0,  999.0,  999.0,  999.0,  999.0,  999.0,  999.0,  999.0,  999.0,  999.0,  999.0,  999.0,  999.0,  999.0
2000/11/19 05:20,  999.0,   -0.4,   -0.8,    2.0,    1.5,    1.3,    2.5,    1.6,    0.6,    0.6,    0.2,  999.0,  999.0,  999.0,  999.0,  999.0,  999.0,  999.0,  999.0,  999.0,  999.0,  999.0,   17.5,  999.0,   18.4,  999.0,   16.8,  999.0,  999.0,   16.0,   14.4,   15.7,  999.0,  999.0,   13.9,    9.9,    8.8,   10.2,  999.0,    8.5,  999.0,  999.0,  999.0,    5.8,  999.0,  999.0,  999.0,    2.5,  999.0,    4.0,    6.5,    5.3,    3.3,  999.0,    1.4,    2.5,    3.3,    2.1
2000/11/19 05:30,  999.0,  999.0,  999.0,    2.2,    0.4,    0.9,    2.5,    2.8,    2.0,    2.2,    1.7,  999.0,  999.0,  999.0,  999.0,  999.0,  999.0,  999.0,  999.0,  999.0,  999.0,  999.0,   16.6,   15.3,   13.0,   10.3,   12.1,   12.2,    5.7,    9.4,    2.5,    6.9,  999.0,  999.0,    5.8,    5.8,    9.2,    1.4,    5.2,    4.4,    0.7,    0.2,    0.1,    0.6,    1.0,    0.9,    1.5,    1.2,    1.1,  999.0,    1.2,    1.5,    0.5,    0.6,    0.7,    1.0,    0.6,    0.9
2000/11/19 05:40,  999.0,  999.0,  999.0,    2.3,   10.1,    1.0,    1.8,    1.6,    1.9,    1.5,    0.5,  999.0,  999.0,  999.0,  999.0,  999.0,  999.0,  999.0,  999.0,  999.0,  999.0,   14.4,   13.5,   11.3,   11.1,    9.2,    8.2,    6.5,    5.2,    5.2,    3.3,    2.1,    1.0,    1.3,    1.4,    1.2,    1.5,    0.8,  999.0,    0.4,    0.8,    1.1,    1.0,    1.3,    0.9,    0.8,    0.8,    1.1,    1.3,    0.8,    0.7,    0.7,    0.0,    0.0,    0.0,    0.7,    0.9,    1.0
2000/11/19 05:50,  999.0,  999.0,  999.0,  999.0,    1.5,    0.7,    2.7,    3.0,    2.7,    1.8,    1.7,    6.5,  999.0,  999.0,  999.0,  999.0,  999.0,  999.0,  999.0,  999.0,  999.0,  999.0,   13.7,   10.7,    9.2,    9.2,    8.3,    7.9,    4.0,    3.3,    1.9,    0.8,    0.8,  999.0,    0.9,   -0.1,    0.6,    0.9,    1.4,    1.0,    1.1,    0.6,    0.4,    0.6,    0.5,    0.7,    0.9,    0.6,    0.7,    0.4,   -0.2,    0.1,    0.8,    0.6,    0.6,  999.0,    0.8,    1.8
2000/11/19 06:00,  999.0,  999.0,   -2.2,   -1.8,    0.6,    3.0,    4.1,    0.9,    0.9,    1.0,    0.4,    0.5,    1.2,  999.0,    1.7,  999.0,  999.0,  999.0,   20.3,   17.7,  999.0,   15.1,  999.0,   11.9,   11.4,  999.0,  999.0,    6.4,    4.5,    3.6,    2.5,    0.7,    1.0,    0.5,    0.9,    0.5,    0.4,    0.8,    1.1,    1.3,    0.9,    0.2,    0.4,    0.9,    0.6,    0.4,    0.4,    0.7,    1.1,    0.2,    0.7,    0.9,  999.0,    0.7,    0.8,    0.5,  999.0,    0.9
2000/11/19 06:10,  999.0,  999.0,   -3.1,   -0.5,  999.0,   -6.9,   -2.2,   -0.6,    0.5,    1.0,   -0.1,   -0.7,    1.2,    1.0,   -0.1,  999.0,  999.0,  999.0,  999.0,  999.0,  999.0,   13.0,   10.9,  999.0,  999.0,    6.3,    6.2,  999.0,  999.0,    1.1,  999.0,    0.5,  999.0,   -0.2,  999.0,    0.7,  999.0,    0.7,    0.6,    0.5,  999.0,    0.4,    0.2,    0.9,  999.0,    0.4,    0.3,    0.3,   -0.6,    0.9,    0.7,  999.0,  999.0,  999.0,  999.0,  999.0,  999.0,  999.0
2000/11/19 06:20,  999.0,    1.1,  999.0,   -4.0,    3.7,    1.0,   -5.8,   -0.8,   -0.2,    2.2,    1.1,  999.0,    0.6,   -0.6,   -0.5,  999.0,  999.0,  999.0,  999.0,  999.0,  999.0,  999.0,  999.0,  999.0,  999.0,  999.0,  999.0,  999.0,  999.0,  999.0,  999.0,  999.0,  999.0,  999.0,  999.0,  999.0,  999.0,  999.0,  999.0,  999.0,  999.0,  999.0,  999.0,  999.0,  999.0,  999.0,  999.0,  999.0,  999.0,  999.0,  999.0,  999.0,  999.0,  999.0,  999.0,  999.0,  999.0,  999.0
2000/11/19 06:30,  999.0,   13.5,    3.2,    0.3,    7.2,   -3.1,    0.7,    0.8,  999.0,    0.5,    0.3,    2.5,    0.1,    1.0,  999.0,  999.0,  999.0,  999.0,  999.0,  999.0,  999.0,  999.0,  999.0,  999.0,  999.0,  999.0,  999.0,  999.0,  999.0,  999.0,  999.0,  999.0,  999.0,  999.0,  999.0,  999.0,  999.0,  999.0,  999.0,  999.0,  999.0,  999.0,  999.0,  999.0,  999.0,  999.0,  999.0,  999.0,  999.0,  999.0,  999.0,  999.0,  999.0,  999.0,  999.0,  999.0,  999.0,  999.0
2000/11/19 06:40,  999.0,  999.0,   -2.2,   -1.3,   -3.8,   -2.4,  999.0,  999.0,  999.0,   -1.3,    1.5,    6.6,   -0.1,    0.2,   -1.1,  999.0,  999.0,  999.0,  999.0,  999.0,  999.0,  999.0,  999.0,  999.0,  999.0,  999.0,  999.0,  999.0,    1.2,  999.0,  999.0,    0.4,  999.0,  999.0,    0.4,  999.0,  999.0,  999.0,  999.0,  999.0,    0.6,  999.0,  999.0,  999.0,  999.0,  999.0,  999.0,    0.9,  999.0,    1.0,  999.0,    0.9,  999.0,  999.0,  999.0,    0.8,  999.0,  999.0
2000/11/19 06:50,  999.0,  999.0,   -0.5,    2.5,    2.3,   -0.1,   -2.2,  999.0,   -1.0,  999.0,    0.7,    0.9,    1.5,    0.7,    1.4,    1.5,  999.0,  999.0,  999.0,  999.0,  999.0,  999.0,  999.0,  999.0,  999.0,  999.0,   14.7,   13.3,  999.0,   11.0,   10.8,    9.0,    8.6,    8.2,    7.1,  999.0,    4.1,  999.0,  999.0,    1.4,    2.1,    1.8,    1.8,    1.2,  999.0,    0.5,    0.5,    0.2,    0.8,    0.7,  999.0,    0.5,  999.0,    1.2,    0.9,    1.0,    0.9,    0.2
2000/11/19 07:00,  999.0,  999.0,  999.0,    2.2,  999.0,    0.1,    2.8,  999.0,   -2.0,  999.0,    2.9,  999.0,  999.0,    3.3,    3.6,    5.0,    2.5,  999.0,  999.0,  999.0,  999.0,  999.0,  999.0,  999.0,  999.0,  999.0,  999.0,  999.0,  999.0,  999.0,  999.0,  999.0,  999.0,  999.0,  999.0,  999.0,  999.0,  999.0,  999.0,  999.0,  999.0,  999.0,  999.0,  999.0,  999.0,  999.0,  999.0,  999.0,  999.0,  999.0,  999.0,  999.0,  999.0,  999.0,  999.0,  999.0,  999.0,  999.0
2000/11/19 07:10,  999.0,   -2.8,   -1.9,    3.7,    1.3,   -2.3,   -2.0,   -3.3,  999.0,    5.7,  999.0,    0.7,    3.6,    3.0,    2.1,    2.2,    1.7,    0.6,    2.8,  999.0,  999.0,  999.0,  999.0,  999.0,  999.0,  999.0,  999.0,  999.0,  999.0,  999.0,  999.0,  999.0,  999.0,  999.0,  999.0,  999.0,  999.0,  999.0,  999.0,  999.0,  999.0,  999.0,  999.0,  999.0,  999.0,  999.0,  999.0,  999.0,  999.0,  999.0,  999.0,  999.0,  999.0,  999.0,  999.0,  999.0,  999.0,  999.0
2000/11/19 07:20,  999.0,  999.0,    4.8,    0.3,   -2.1,   -5.3,   -6.0,   -6.9,  999.0,  999.0,    1.0,    1.1,    2.3,    3.6,    3.1,    2.8,    2.3,    1.5,   -0.3,   -2.0,  999.0,  999.0,  999.0,  999.0,  999.0,  999.0,  999.0,  999.0,  999.0,  999.0,  999.0,  999.0,  999.0,  999.0,    7.5,  999.0,    5.9,    5.1,    4.9,    3.8,  999.0,    2.4,  999.0,    0.9,    0.7,  999.0,    1.0,  999.0,  999.0,  999.0,    0.8,    1.0,    0.9,    0.7,    0.8,    0.8,    0.3,    0.5
2000/11/19 07:30,  999.0,   -0.2,   -1.0,   -1.3,   -0.5,   -0.7,    0.4,   -0.5,  999.0,    1.8,    0.5,   -0.3,    1.8,    2.8,    1.9,    2.0,    3.0,    0.9,    0.2,   -3.3,   -2.8,  999.0,  999.0,  999.0,  999.0,  999.0,  999.0,  999.0,  999.0,  999.0,  999.0,  999.0,  999.0,  999.0,  999.0,  999.0,  999.0,  999.0,  999.0,  999.0,  999.0,  999.0,  999.0,  999.0,    0.6,  999.0,  999.0,  999.0,    0.6,    0.8,  999.0,    0.4,    1.0,    0.9,    0.9,    0.4,    0.7,  999.0
2000/11/19 07:40,  999.0,  999.0,  999.0,   -1.5,  999.0,   -1.2,   -1.3,  999.0,  999.0,    1.4,  999.0,    0.5,    2.0,    1.2,    1.0,    0.9,    0.3,  999.0,   -0.7,   -2.0,   -1.4,  999.0,  999.0,  999.0,  999.0,   -5.6,   -7.8,   -5.7,   -5.7,   -2.5,   -5.4,   -5.6,   -4.8,   -3.1,   -5.6,   -1.8,   -5.8,   -5.3,   -2.6,   -2.5,   -2.9,   -3.2,   -1.1,    0.3,    1.1,   -1.3,   -1.8,   -2.4,   -1.8,   -1.2,   -2.7,   -2.9,   -1.2,  999.0,    1.1,  999.0,    0.9,    0.8
2000/11/19 07:50,  999.0,  -20.1,  -11.2,   -2.3,   -0.9,   -0.7,   -0.2,    0.7,    1.9,    2.4,    2.2,    2.5,    2.8,    2.8,    2.4,    4.3,    4.7,   -0.8,    0.5,    1.1,    2.8,    1.4,    2.3,    2.5,    2.3,    2.3,    0.2,   -1.4,   -1.2,   -1.0,   -0.9,   -0.8,   -1.7,   -2.2,   -1.5,   -1.0,   -2.0,   -2.5,   -2.2,   -1.6,   -1.4,   -1.0,   -0.4,    0.0,   -0.4,   -2.5,   -3.2,   -3.7,   -3.5,   -4.2,   -4.5,   -4.7,   -4.2,   -4.6,   -4.1,   -4.6,   -5.9,   -7.2
2000/11/19 08:00,  999.0,   -5.9,   -5.5,   -4.0,   -2.6,   -1.6,   -0.3,    0.6,    1.1,    1.5,    2.3,    3.2,    3.2,    3.1,    2.9,    3.8,    2.7,    3.1,    3.8,    4.2,    4.4,    3.2,    2.6,    2.6,    2.0,   -0.1,   -1.0,   -0.8,   -0.9,   -1.3,   -1.1,   -1.2,   -2.3,   -3.8,   -4.2,   -5.6,   -6.2,   -7.1,   -7.1,   -7.2,   -5.7,   -2.3,   -2.8,   -3.9,   -5.2,   -4.9,   -4.6,   -4.1,   -4.8,   -5.0,   -4.8,   -4.5,   -4.3,   -4.3,   -2.5,  999.0,  999.0,  999.0
2000/11/19 08:10,  999.0,   -6.5,   -3.8,   -2.9,   -1.6,    0.2,    1.0,    1.4,    1.0,    2.0,    3.0,    2.7,    3.2,    3.2,    3.2,    3.4,    3.9,    2.9,    3.7,    3.6,    4.6,    4.8,    5.2,    5.6,    5.0,    5.0,    2.5,    1.0,    1.2,    1.4,    1.6,    1.2,   -0.7,   -0.9,   -0.8,   -1.0,   -2.3,   -6.0,   -8.5,  999.0,  999.0,   -2.3,   -2.9,   -5.4,   -7.3,   -8.6,   -8.6,   -7.0,   -6.8,   -6.7,   -6.8,   -6.7,   -5.2,   -4.1,   -3.3,  999.0,  999.0,  999.0
2000/11/19 08:20,  999.0,   -4.6,   -4.2,   -2.9,   -2.2,   -1.3,   -0.1,    0.8,    1.6,    2.7,    3.7,    3.9,    4.3,    4.1,    4.3,    4.2,    5.5,    5.0,    7.4,    6.8,    8.4,    7.9,   11.5,   10.1,  999.0,    8.3,  999.0,  999.0,  999.0,  999.0,  999.0,  999.0,  999.0,  999.0,  999.0,  999.0,  999.0,  999.0,  999.0,  999.0,  999.0,  999.0,  999.0,  999.0,  999.0,  999.0,  999.0,  999.0,  999.0,  999.0,  999.0,  999.0,  999.0,  999.0,  999.0,  999.0,  999.0,  999.0
2000/11/19 08:30,  999.0,   -6.8,   -6.3,   -4.2,   -3.6,   -4.0,   -3.0,   -2.3,   -1.5,   -1.0,   -0.5,   -0.2,    0.2,    1.1,    2.7,    3.3,    2.8,    3.4,    5.4,    6.4,  999.0,  999.0,   15.5,   17.2,  999.0,  999.0,  999.0,  999.0,  999.0,  999.0,  999.0,  999.0,  999.0,  999.0,  999.0,  999.0,  999.0,  999.0,  999.0,  999.0,  999.0,    3.0,    2.8,    4.0,    4.8,    5.3,    4.7,  999.0,  999.0,  999.0,  999.0,  999.0,   -0.9,   -0.3,  999.0,  999.0,  999.0,  999.0
2000/11/19 08:40,  999.0,  999.0,   -3.2,   -0.6,   -0.4,   -2.4,    1.1,    2.1,    2.6,    4.4,    2.9,    4.3,    4.1,    5.4,    6.9,    4.6,    3.3,    4.4,    3.9,    4.4,    2.2,    3.9,    3.4,   10.0,    7.7,    9.5,    4.6,   -0.0,   -0.1,    4.0,    4.1,   -3.0,    2.5,    1.7,   -3.9,   -2.4,    1.6,    4.2,    4.6,    5.0,    2.1,    3.0,    3.3,   -0.6,    2.0,    5.5,    4.7,   -1.0,  999.0,  999.0,   -1.0,   -0.7,   -0.6,  999.0,  999.0,  999.0,   -3.0,    0.9
2000/11/19 08:50,  999.0,   -2.9,   -4.0,   -3.5,   -2.7,   -0.7,   -0.5,    0.7,    2.8,    3.6,    3.6,    3.5,    3.6,    3.3,    2.6,    2.0,    2.6,    1.9,    1.4,    2.2,    2.7,    0.7,    2.1,    1.2,    0.0,   -0.7,   -1.6,    1.4,    3.0,    3.5,    4.9,    4.7,    4.7,    6.4,    7.4,    8.1,    7.8,    6.9,    7.3,    8.4,    8.5,    8.0,    6.1,   -2.2,   -3.6,    1.1,    4.6,    1.8,    5.0,    2.9,   -0.5,  999.0,  999.0,   10.3,   10.9,   10.4,  999.0,  999.0
2000/11/19 09:00,  999.0,   -3.1,   -3.2,   -3.3,   -2.2,   -0.8,   -0.7,    0.7,    2.0,    2.4,    2.0,    1.2,    0.6,    1.2,    2.2,    3.7,    3.4,    0.8,    0.9,   -0.2,   -3.4,   -4.2,   -1.6,    0.7,    1.4,    2.8,    3.9,    3.9,    1.5,    1.1,    1.5,    2.4,    2.9,    3.2,    3.3,    3.0,    2.2,    1.8,    1.0,   -0.3,   -1.9,   -1.6,   -0.7,    0.7,    0.6,    2.2,    3.9,    3.6,    4.0,    3.9,    4.0,    2.5,    4.3,    5.6,    8.6,   11.7,    0.3,  999.0
2000/11/19 09:10,  999.0,   -2.1,   -4.2,   -3.8,   -2.1,   -0.1,    1.0,    1.2,    0.6,    0.7,    0.0,   -3.2,   -2.1,   -3.3,   -3.5,   -4.2,   -3.8,   -3.4,   -2.9,   -4.6,   -5.0,   -5.8,   -5.2,   -4.2,   -2.3,    0.6,    2.1,    4.5,    7.0,    6.3,    8.3,   10.1,    7.7,    8.7,    8.9,    9.1,    8.5,    6.7,    4.1,    2.7,    1.9,    0.1,   -0.9,   -1.4,   -2.7,   -2.7,   -3.5,   -1.6,   -3.1,   -2.4,   -1.2,    0.9,   -0.6,   -0.5,    1.4,    1.7,    2.0,    3.7
2000/11/19 09:20,  999.0,   -3.4,   -4.0,   -2.2,   -0.8,   -0.2,    1.1,    0.6,    0.6,   -0.7,   -0.9,   -0.5,   -1.3,   -1.4,   -1.1,   -0.1,    0.9,    0.7,    0.1,   -0.8,   -1.2,   -0.1,   -0.2,   -1.0,   -2.8,   -2.0,   -2.4,    0.2,    2.4,    3.1,    3.8,    6.8,   10.2,   11.8,   12.4,   12.5,   12.5,   11.8,    8.4,    7.7,    4.2,    2.4,    1.4,   -0.6,    0.3,    3.7,    5.5,    5.7,    7.6,  999.0,  999.0,    4.0,   -1.1,   -0.8,  999.0,  999.0,  999.0,  999.0
2000/11/19 09:30,  999.0,   -3.3,   -2.8,   -1.0,    0.6,    0.1,    0.1,   -0.6,   -3.1,   -4.8,   -4.7,   -3.9,   -3.3,   -1.8,   -1.6,   -1.1,   -0.8,   -2.2,   -2.9,   -4.2,   -4.0,   -4.1,   -3.7,   -2.9,   -2.6,   -2.1,   -3.0,   -1.9,   -2.5,   -0.3,    0.8,   -0.7,   -0.8,   -5.4,   -2.6,   -1.6,   -0.8,    1.9,    3.1,    4.0,    4.5,    3.2,    2.1,    1.1,    0.8,    1.2,    2.8,    3.4,    4.0,    5.0,    5.4,    6.2,    6.4,    7.6,    8.5,    9.9,   10.0,   10.4
2000/11/19 09:40,  999.0,   -3.8,   -3.7,   -1.9,   -0.3,   -1.9,    0.1,   -1.2,   -1.8,   -2.4,   -1.0,   -0.2,    0.9,    1.1,   -0.1,   -1.6,   -2.5,   -3.0,   -3.1,   -3.3,   -4.5,   -5.5,   -5.5,   -5.1,   -4.7,   -4.3,   -3.7,   -4.0,   -3.9,   -3.7,   -3.7,   -4.3,   -5.1,   -4.7,   -3.3,   -2.1,   -1.4,   -1.0,   -0.9,   -1.0,   -1.6,   -1.5,   -1.2,   -0.6,   -0.1,    1.4,    2.5,    2.5,    3.3,    4.1,    4.4,    4.5,    4.4,    3.8,    4.3,    5.6,    7.2,    8.4
2000/11/19 09:50,  999.0,   -1.3,    0.1,    0.6,    1.3,    1.0,   -1.4,   -3.4,   -1.3,   -0.1,    1.8,    2.8,    2.6,    2.2,    1.6,   -0.2,   -1.8,   -1.9,   -2.3,   -3.0,   -4.7,   -5.2,   -5.4,   -3.9,   -3.6,   -4.9,   -4.1,   -4.3,   -4.7,   -4.9,   -5.9,   -7.3,   -6.9,   -6.3,   -5.6,   -6.4,   -5.8,   -5.5,   -5.4,   -5.1,   -4.7,   -4.5,   -3.7,   -2.3,   -2.6,   -3.3,   -2.9,   -1.4,    0.2,    2.5,    4.2,    4.8,    6.0,    9.0,    9.7,   11.5,   13.2,   14.4
2000/11/19 10:00,  999.0,   -7.7,   -4.5,   -0.2,   -1.9,   -3.6,   -1.8,   -0.7,   -0.8,   -0.0,    0.8,    1.8,    3.4,    3.7,    5.6,  999.0,  -12.1,    7.7,   -8.7,  999.0,   -1.2,   -1.9,   -4.0,   -6.5,  -10.6,   -9.7,   -6.9,   -4.2,   -5.2,   -7.7,   -7.3,   -6.0,   -4.9,   -4.4,   -2.9,   -1.7,   -1.5,   -2.2,   -3.1,   -4.8,   -3.8,   -1.4,   -1.7,   -3.8,   -3.8,   -4.8,   -4.9,   -5.4,   -3.4,   -2.3,    0.2,    0.8,  999.0,  999.0,  999.0,   10.1,   11.2,   10.9
2000/11/19 10:10,  999.0,  999.0,   -1.5,   -0.3,  999.0,  999.0,  999.0,  999.0,  999.0,  -16.3,  -15.4,  -13.9,  -13.1,  -11.7,  999.0,   -7.9,   -8.2,   -6.4,   -5.6,   -5.3,   -4.1,   -2.6,   -1.8,  999.0,   -1.0,   -1.0,  999.0,  999.0,   -0.6,   -0.9,   -0.7,   -1.2,   -0.2,   -1.0,   -1.2,   -1.2,  999.0,   -0.2,   -1.2,  999.0,   -0.9,   -0.9,   -1.2,   -1.4,   -0.7,  999.0,  999.0,   -0.5,  999.0,  999.0,   -0.5,  999.0,  999.0,  999.0,   -1.0,  999.0,  999.0,  999.0
2000/11/19 10:20,  999.0,  999.0,  999.0,  999.0,  999.0,  999.0,  999.0,  999.0,  999.0,  999.0,  999.0,  999.0,  -12.6,  -10.9,  999.0,  999.0,   -6.3,   -6.3,   -5.1,   -5.1,   -4.7,   -1.0,   -1.6,   -0.7,   -1.2,   -0.9,   -1.1,   -0.6,  999.0,   -0.8,   -0.7,   -0.9,  999.0,   -0.6,   -0.8,   -0.9,   -0.7,  999.0,   -0.6,   -0.9,   -0.3,  999.0,   -0.7,   -0.2,   -0.5,   -0.6,  999.0,   -0.5,   -0.7,   -0.8,  999.0,   -1.1,   -0.4,  999.0,   -1.0,  999.0,   -0.4,  999.0
2000/11/19 10:30,  999.0,   -2.1,   -0.9,    0.0,   -0.5,   -0.0,   -0.3,    0.1,    0.3,    0.1,    0.6,   -0.0,  999.0,  999.0,    0.1,  999.0,   -4.3,   -3.1,   -8.9,  999.0,   -3.4,   -1.4,   -0.8,   -0.8,   -0.9,  999.0,   -0.9,  999.0,   -0.7,   -1.0,  999.0,   -0.5,   -0.1,  999.0,   -0.9,  999.0,   -0.4,   -0.6,   -0.7,   -1.0,  999.0,   -0.9,  999.0,   -1.3,   -0.5,   -1.2,   -1.6,  999.0,   -1.1,   -1.0,   -0.8,    0.0,   -0.4,  999.0,   20.5,    9.9,   -0.6,   -0.9
2000/11/19 10:40,  999.0,   -3.5,   -2.7,   -1.4,   -0.1,   -0.4,   -2.2,   -0.4,   -0.4,    0.5,    0.6,    0.2,    0.3,   -1.6,    5.3,  999.0,    8.9,   10.8,    9.8,  999.0,  999.0,  999.0,  999.0,  999.0,  999.0,  999.0,  999.0,  999.0,  999.0,  999.0,  999.0,  999.0,  999.0,   -0.9,  999.0,  999.0,   -1.0,   -0.9,   -1.0,   -0.5,   -1.3,   -1.0,   -0.1,   -0.8,   -0.2,   -1.3,   -0.9,   -0.5,   -0.8,   -0.7,   -1.4,   -0.8,   -0.0,   -0.9,   -0.5,   -0.9,   -0.8,   -0.9
2000/11/19 10:50,  999.0,  999.0,   -4.9,   -2.5,   -0.7,   -1.2,   -1.5,   -0.2,   -0.3,    0.1,   -0.0,   -0.5,    0.1,    1.7,    1.4,    3.2,   10.1,    9.2,   14.0,  999.0,  999.0,  999.0,  999.0,  999.0,  999.0,  999.0,  999.0,  999.0,  999.0,  999.0,  999.0,  999.0,  999.0,  999.0,  999.0,  999.0,  999.0,  999.0,  999.0,   40.9,   42.1,  999.0,  999.0,  999.0,  999.0,   20.9,   20.7,   20.6,   20.8,   -0.2,   20.3,   -0.2,   -1.3,   41.4,  999.0,   41.6,   42.5,   41.9
2000/11/19 11:00,  999.0,   -2.9,   -3.8,   -2.0,   -3.1,   -1.7,   -1.6,    0.0,    0.1,    0.2,    0.0,    0.3,   -0.6,   -1.3,   -1.9,    1.1,   -0.3,    0.5,  999.0,  999.0,    2.5,   -7.7,   -4.0,  999.0,   -0.5,  999.0,    6.9,   19.4,    9.6,  999.0,  999.0,  999.0,  999.0,  999.0,  999.0,  999.0,   38.3,  999.0,  999.0,   41.8,  999.0,  999.0,   27.8,   42.3,   42.2,  999.0,    5.9,  999.0,  999.0,  999.0,   42.0,   42.5,   21.2,  999.0,   41.5,   41.9,   31.2,  999.0
2000/11/19 11:10,  999.0,   -1.3,   -1.3,   -2.1,   -3.9,   -2.4,   -0.5,    0.1,    0.6,    0.3,   -0.4,    0.5,    0.8,   -0.5,   -0.3,   -0.7,    0.0,    1.0,    0.4,   -2.0,  999.0,  999.0,  999.0,  999.0,  999.0,  999.0,  999.0,   12.2,  999.0,  999.0,  999.0,  999.0,  999.0,  999.0,  999.0,  999.0,  999.0,   38.0,   39.7,   40.3,   40.4,   41.9,   41.5,   41.7,   42.4,   42.3,   42.3,  999.0,   42.4,   42.4,   41.9,   40.9,   41.6,   41.5,   41.5,   42.1,   41.4,   41.3
2000/11/19 11:20,  999.0,   -2.2,   -3.6,   -3.1,   -4.1,   -2.4,    0.3,    0.9,    0.4,   -0.3,    0.6,    0.4,   -0.6,   -0.8,   -0.5,   -0.6,   -0.3,    0.4,    0.9,  999.0,  999.0,  999.0,  999.0,  999.0,  999.0,  999.0,  999.0,  999.0,  999.0,  999.0,  999.0,  999.0,  999.0,  999.0,  999.0,  999.0,   41.8,  999.0,   41.7,   42.0,   41.9,   42.4,   42.3,   42.0,   42.1,   41.9,   41.9,   41.9,   42.1,   41.9,   39.7,   30.0,   29.6,   32.6,   42.5,   21.7,   28.4,   30.8
2000/11/19 11:30,  999.0,   -1.5,   -2.1,   -3.2,   -4.7,   -1.0,    0.6,    1.9,    1.1,    0.3,    1.0,    0.9,    0.4,    0.2,   -0.0,  999.0,  999.0,  999.0,  999.0,  999.0,  999.0,  999.0,  999.0,  999.0,  999.0,  999.0,  999.0,  999.0,  999.0,  999.0,  999.0,  999.0,  999.0,  999.0,  999.0,  999.0,   41.7,   41.7,   42.2,   41.4,   41.7,   42.2,   42.4,   42.2,   41.8,   42.2,   42.3,   42.4,   42.0,   42.2,   41.6,   41.6,   41.5,   42.3,   41.8,  999.0,   41.7,   41.6
2000/11/19 11:40,  999.0,   -3.0,   -3.7,   -2.2,   -1.8,   -0.6,    1.2,    1.5,    0.4,    1.5,    1.0,  999.0,    0.2,    0.9,    0.0,  999.0,    2.9,    4.4,  999.0,    7.2,  999.0,  999.0,  999.0,  999.0,  999.0,  999.0,  999.0,  999.0,  999.0,  999.0,  999.0,  999.0,  999.0,   41.5,   41.7,   41.7,   41.2,   41.5,   41.9,   41.9,   41.8,   42.1,   41.9,   41.9,   42.6,   42.0,   41.8,   42.3,   42.1,   42.2,   41.6,   41.8,   41.8,   41.9,   42.0,   41.6,   42.0,   41.9
2000/11/19 11:50,  999.0,   -2.4,   -3.0,   -3.2,   -2.1,   -2.4,    1.4,    1.0,    0.5,    1.0,    0.8,    1.0,    0.0,    0.4,   -0.8,    0.3,    1.0,    3.2,    4.0,  999.0,    5.9,  999.0,  999.0,  999.0,  999.0,  999.0,  999.0,   36.1,  999.0,   33.9,   34.6,   37.2,   36.9,   37.6,   39.7,   41.2,   41.8,   42.0,   42.0,   41.6,   41.5,   41.6,   41.9,   42.0,   42.4,   42.0,   41.9,   41.7,   41.8,   41.7,   42.0,   41.4,   42.5,   41.8,   42.2,   41.6,   41.2,   41.7
2000/11/19 12:00,  999.0,   -0.5,   -3.6,   -1.7,   -1.0,   -0.4,    0.4,    0.9,    1.6,    1.2,    0.6,    0.5,   -0.8,    0.2,  999.0,  999.0,   -0.2,    1.1,    1.4,  999.0,    9.4,  999.0,  999.0,  999.0,  999.0,  999.0,  999.0,  999.0,   38.5,  999.0,   39.9,   40.8,   41.5,  999.0,  999.0,   41.7,   42.2,   20.7,   20.7,   20.6,    9.5,   -0.9,   42.2,   13.1,   20.3,   20.2,   20.9,   20.5,   20.6,   20.9,   41.9,   20.2,   40.9,   20.4,   42.8,   42.0,   20.2,   42.0
2000/11/19 12:10,  999.0,    1.2,    0.9,   -1.3,   -0.8,    0.4,    1.6,    1.6,    2.4,    0.8,    0.6,    1.0,  999.0,    0.5,  999.0,  999.0,   14.3,   28.7,   32.1,    1.1,   39.2,  999.0,   41.9,  999.0,   41.6,   42.0,  999.0,   41.9,   22.3,   42.0,  999.0,   41.9,  999.0,   41.2,   41.8,  999.0,   -7.3,   41.2,    4.5,  999.0,   -2.3,   -1.7,    5.6,   -1.2,   13.4,   -0.2,   -1.3,   -0.4,   -0.4,   21.0,  999.0,   21.0,   21.0,   21.4,   41.7,   41.7,   20.6,   -0.6
2000/11/19 12:20,  999.0,    1.0,    0.7,   -0.5,    1.1,    1.3,    3.2,    2.2,    0.6,    0.5,    0.3,    0.8,    0.5,   -0.7,   -0.3,    1.1,    2.3,  999.0,  999.0,    9.2,  999.0,    3.9,   -1.8,  999.0,  -13.1,  -11.3,  999.0,   -9.8,  999.0,  999.0,  999.0,  999.0,   37.5,   -0.7,   39.0,   40.3,   -1.1,   10.0,   -1.5,    9.7,   -0.8,    9.4,   20.6,   -0.7,   41.5,  999.0,   41.7,   41.8,   41.9,  999.0,  999.0,   11.3,    0.1,    0.8,    0.4,    0.6,    3.8,    2.2
2000/11/19 12:30,  999.0,    0.2,  999.0,    0.1,  999.0,    1.4,  999.0,    0.4,    0.8,    1.1,    0.3,  999.0,    1.0,    0.1,  999.0,   -0.6,  999.0,  999.0,  999.0,  999.0,  999.0,  999.0,  999.0,  999.0,  -10.0,  -11.3,   -6.6,   -4.7,   -0.9,   -0.7,   38.0,   -3.2,  999.0,   -0.5,   -1.0,  999.0,   -0.3,   41.9,  999.0,  999.0,  999.0,  999.0,   39.6,   34.6,   29.4,   24.4,  999.0,  999.0,   10.3,  999.0,  999.0,   -0.2,  999.0,    0.6,    1.3,    0.3,    0.7,  999.0
2000/11/19 12:40,  999.0,    2.2,  999.0,  999.0,    1.4,    2.7,    1.8,    2.1,    0.6,   -1.3,   -0.2,    2.5,  999.0,    0.1,  999.0,   21.0,   22.0,  999.0,   23.4,  999.0,   24.5,  999.0,   25.7,  999.0,   21.3,   34.6,  999.0,   -0.5,   42.2,   -1.2,   -1.0,   -1.3,  999.0,   -1.1,  999.0,  999.0,   35.2,   35.8,  999.0,  999.0,   37.5,  999.0,   39.2,   40.2,   40.6,  999.0,  999.0,   -0.6,   -0.9,   -0.3,  999.0,  999.0,  999.0,  999.0,   -0.1,  999.0,   -1.2,  999.0
2000/11/19 12:50,  999.0,  999.0,  999.0,  999.0,  999.0,    3.3,    3.2,    1.5,    1.6,    1.3,  999.0,    2.1,    1.7,    1.3,    0.9,  999.0,  999.0,  999.0,  999.0,  999.0,  999.0,  999.0,   -0.6,   18.2,   20.3,   20.0,   41.5,   -1.0,   41.8,  999.0,  999.0,  999.0,   41.1,  999.0,  999.0,   41.7,   20.4,   20.2,   20.5,   42.1,   20.7,   42.4,   41.8,  999.0,   41.5,   41.9,   42.3,  999.0,   42.1,   42.2,   41.9,   41.3,   41.9,   41.4,  999.0,   41.5,   41.8,   42.4
2000/11/19 13:00,  999.0,    4.2,    3.4,    2.9,    1.5,    2.4,    0.9,    1.8,    0.5,    0.0,    0.2,  999.0,    3.9,    4.0,    3.7,    9.8,   14.9,    9.1,  999.0,  999.0,  999.0,   35.4,   26.5,   33.0,  999.0,   41.3,   42.2,   41.4,   41.6,   41.8,   17.5,   41.4,   41.5,   41.5,  999.0,   41.8,   41.9,   42.0,   41.9,   41.8,   41.9,   41.5,   42.0,   41.6,   41.6,   41.7,   42.2,   42.1,   41.9,   41.7,   41.6,   41.5,   41.7,   41.8,   42.0,   41.2,   41.7,   41.3
2000/11/19 13:10,  999.0,    2.7,    3.6,    1.7,    2.1,    2.2,    1.9,    2.8,    2.0,  999.0,    1.9,  999.0,  999.0,  999.0,  999.0,    6.8,  999.0,   24.7,  999.0,   28.6,   30.2,   31.3,   41.6,   38.1,   39.4,   40.2,   41.4,  999.0,   42.0,   42.0,   42.0,   42.3,   42.1,   41.9,   41.6,   41.5,   42.2,   42.0,   42.1,   41.6,   41.6,   42.1,   41.8,   41.8,   41.7,   42.2,   42.2,   41.9,   42.0,   41.4,   41.6,   41.9,   42.2,   41.8,   42.2,   41.9,   42.0,   41.8
2000/11/19 13:20,  999.0,    0.9,    2.0,    2.8,    2.2,    2.1,    1.8,    2.3,  999.0,    1.0,  999.0,  999.0,    1.6,    0.4,    4.0,    2.2,    6.6,  999.0,  999.0,   22.3,   22.5,   29.7,   27.7,  999.0,   42.1,   25.4,   33.8,   34.2,   42.1,   34.3,   41.9,   26.4,   41.4,   25.8,   30.1,   25.2,   27.1,   41.8,   24.9,  -14.7,    8.8,    5.8,  -37.5,    2.0,   38.4,   17.3,   39.2,    5.8,    5.7,   10.6,   20.9,    9.5,   39.2,   30.3,    9.9,   21.0,   11.0,   31.0
2000/11/19 13:30,  999.0,   -0.1,    1.1,    1.3,    0.9,    0.9,    1.3,    2.0,  999.0,    0.7,   -0.0,    4.2,    4.1,  999.0,  999.0,  999.0,    2.9,  999.0,  999.0,  999.0,  999.0,  999.0,   24.9,   24.8,   25.9,   14.9,   26.7,  999.0,   27.7,   28.2,   21.3,   29.2,   29.0,   30.1,   30.2,   30.9,   26.9,   31.7,   25.4,   33.2,   33.4,   34.1,   27.5,   34.8,    9.9,   35.8,   21.3,   36.2,   37.0,   19.9,   38.2,   37.9,   20.6,   20.5,   39.8,   41.2,   41.1,   41.3
2000/11/19 13:40,  999.0,   -0.9,    0.5,    1.1,    1.1,    1.3,   -0.1,    1.4,    0.9,  999.0,   -0.5,    1.1,   -1.0,  999.0,    0.1,    1.4,  999.0,  999.0,    5.8,  999.0,  999.0,  999.0,  999.0,  999.0,   -6.9,   -5.9,  999.0,   27.1,   18.4,   18.6,   23.9,   30.4,   16.6,   16.2,   31.6,   16.4,   11.0,   11.7,   -0.9,    7.1,   14.6,   -0.7,   14.9,   17.2,   36.9,   37.5,   38.0,   33.1,   29.1,   37.6,   38.9,   39.0,   39.3,   42.1,   41.5,   42.0,   42.0,   41.6
2000/11/19 13:50,  999.0,    0.8,    1.4,    1.2,    0.9,    0.6,    1.5,    1.5,    1.0,    1.5,    2.0,    2.0,  999.0,    2.0,    3.8,    2.8,    5.9,  999.0,    6.9,  999.0,  -18.0,  999.0,  999.0,  999.0,  999.0,  999.0,  999.0,  999.0,  999.0,   29.3,   31.8,   30.9,   32.9,   33.9,   35.7,   35.5,   34.0,   37.6,   35.7,   38.1,   36.5,   29.3,   37.6,   38.6,   26.1,   19.6,   20.6,   41.2,   42.1,   27.7,   31.6,   42.0,   20.6,   41.6,   34.6,   20.6,  999.0,   27.5
2000/11/19 14:00,  999.0,    2.4,    2.4,    2.8,    2.1,    2.2,    1.9,    1.7,    1.4,    1.2,    1.2,    1.5,    1.8,    1.7,    2.4,    2.3,    4.2,  999.0,  999.0,  999.0,  999.0,  999.0,  999.0,  999.0,   -9.4,  -35.9,  999.0,  999.0,  999.0,  999.0,  999.0,  999.0,   33.8,   17.5,   17.5,   23.7,   18.9,   32.5,   40.1,   39.5,   19.8,   31.1,   41.9,   40.7,   41.3,   41.6,   42.3,   42.4,   42.2,   42.1,   37.7,  999.0,   36.0,   41.7,   39.9,   27.9,   26.2,   34.8
2000/11/19 14:10,  999.0,    2.4,    2.9,    2.7,    2.0,    2.0,    1.8,    2.1,    1.6,    1.4,  999.0,    3.0,    3.1,    2.3,    2.4,    2.7,    3.5,   23.9,   16.3,   25.2,   26.5,   28.6,   27.9,   29.2,   28.9,   30.4,   30.9,   32.0,   33.1,   33.5,   34.3,   33.4,   34.2,   35.7,   37.0,   37.7,   38.1,   38.5,   40.1,   41.7,   40.7,   41.3,   42.2,   41.3,   41.8,   42.2,   41.9,   41.7,   42.1,   42.3,   42.0,   41.8,   41.6,   41.6,   41.4,   41.8,   41.8,   41.2
2000/11/19 14:20,  999.0,    1.7,    1.1,    1.3,    2.0,    2.5,    2.5,    2.4,    2.7,    2.3,    1.8,    2.9,  999.0,    2.5,    1.2,    0.1,    3.2,  -22.0,  999.0,  999.0,   14.4,   24.5,   22.0,   19.9,   29.8,   23.1,   22.9,   31.7,   32.5,   33.2,   24.4,   35.1,   36.1,   19.1,   22.0,   39.4,   40.5,   41.5,   27.8,   33.0,  999.0,   41.6,   41.8,   41.5,   41.8,   41.5,   42.0,   20.5,   -0.5,   -0.9,   20.4,   -0.9,   -1.3,   41.2,   -1.2,   -0.8,   20.4,   43.0
2000/11/19 14:30,  999.0,    2.7,    2.7,    3.4,    3.3,    2.1,    1.7,    2.4,    2.5,    1.0,    0.8,    1.2,  999.0,  999.0,  999.0,    1.3,   19.3,   18.2,   17.8,   16.6,   12.8,   13.7,   10.4,    8.5,   12.1,    5.7,    4.0,    2.9,    5.6,    5.3,    0.6,    4.4,    0.4,    6.1,    0.7,    3.6,  999.0,  -33.6,  -16.9,  -18.3,  -17.6,    1.1,  -28.4,  -20.9,  -20.4,  999.0,    0.0,    0.3,    0.0,  -10.1,  -30.6,  -13.1,  -19.7,  -14.9,    0.6,  -21.6,  -41.7,   18.9
2000/11/19 14:40,  999.0,    4.0,    3.3,    1.8,    2.2,    2.3,    3.0,    3.2,    1.9,    2.7,    1.7,  999.0,  999.0,  999.0,  999.0,  999.0,  999.0,   19.9,  999.0,  999.0,  999.0,   11.3,   16.9,  999.0,   41.5,    5.0,   23.4,   41.5,   11.0,    0.6,   21.4,    0.8,   21.7,    1.6,    1.4,   41.8,  999.0,  999.0,   10.8,    7.8,   41.8,   42.1,   21.5,    0.4,   21.7,    1.3,  999.0,   42.5,  -37.8,  -14.1,   -7.9,  -15.2,    0.9,  -20.9,  999.0,  -41.1,   -0.1,    0.5
2000/11/19 14:50,  999.0,    1.7,    1.0,    1.7,    2.5,    0.6,    1.3,    2.1,    2.9,    1.8,    2.8,    3.3,  999.0,  999.0,    1.3,    1.9,   10.1,    9.3,   19.4,   18.6,   18.0,   17.3,  999.0,  999.0,  999.0,  999.0,  999.0,  999.0,  999.0,   12.7,   12.1,  999.0,  999.0,  999.0,  999.0,  999.0,  -33.8,  -34.5,  -35.3,  -42.3,  -38.6,  -37.5,  -37.8,  -38.0,  -40.2,  -40.1,  -40.0,  -41.1,  -41.3,  -41.9,  -41.7,  -41.8,  -41.8,  -41.5,  -42.2,  -41.6,  -41.5,  -41.3
2000/11/19 15:00,  999.0,    2.3,    2.2,    4.1,    2.8,    1.9,    1.7,    1.9,    1.1,    2.4,    1.0,  999.0,    2.3,  999.0,    1.0,    1.4,  999.0,   -9.0,  999.0,  999.0,  999.0,   -5.4,  -19.8,   -0.3,   -0.5,  999.0,  -18.9,  -20.9,  999.0,  999.0,  999.0,  999.0,  999.0,  999.0,  999.0,  999.0,  -38.9,  -37.3,  -41.8,  -32.0,  -23.4,  -35.1,  -32.0,  -29.1,  -27.0,  -31.8,  -28.0,  -30.1,  -41.7,  -41.9,  -39.8,  -41.6,  -41.4,  -40.2,  -41.3,  -41.6,  -42.1,  -21.6
2000/11/19 15:10,  999.0,    1.3,    2.3,    3.3,    3.4,    1.5,    0.0,    1.8,    1.5,  999.0,  999.0,   -0.4,    1.0,  999.0,    0.3,   -0.4,  999.0,    1.3,  999.0,  999.0,  999.0,  -33.6,  -36.5,  -27.4,  -42.1,  -32.1,  -41.4,   -1.5,  -26.2,  -27.6,   22.3,  999.0,  999.0,  999.0,  -41.1,  -41.5,  -41.5,  -41.1,  -40.9,  -41.3,  -41.5,  -41.6,  -41.5,  -41.7,  -42.1,  -41.6,  -41.7,  -41.5,  -41.8,  -42.1,  -33.6,  -23.0,  -34.3,  -29.6,  -41.2,  -34.6,  -28.1,  -40.9
2000/11/19 15:20,  999.0,    1.2,    2.1,    2.6,    2.4,    2.3,    2.3,    1.1,    1.9,  999.0,  999.0,  999.0,    3.2,  999.0,  999.0,    8.5,   32.4,  999.0,   -8.6,   14.2,    8.4,   36.9,   18.1,   19.5,   20.4,   19.7,   -0.8,   -0.8,   -0.9,    9.6,   -0.7,   -0.2,  999.0,  999.0,   -1.2,   -0.7,   -0.7,   -1.3,   -1.0,   -0.9,   -1.7,   -0.9,   -1.2,   -0.9,   -0.7,   -0.9,   -1.0,   -0.8,   -1.0,   -0.5,   -0.8,   -1.2,   -0.8,    6.6,    6.0,   13.6,   13.2,   20.3
2000/11/19 15:30,  999.0,    1.1,    1.4,    2.6,    2.6,    1.4,    0.3,    1.1,    1.1,    1.5,  999.0,    1.4,    0.5,  999.0,    0.1,   21.5,   23.1,    5.3,    7.8,   -9.2,  999.0,   25.3,   27.2,   28.4,   29.4,   21.1,   -0.9,   20.5,    8.8,   -0.3,   -0.2,  999.0,   -0.4,   -1.4,   -0.4,  999.0,   20.6,   27.3,   20.5,   41.2,   31.2,  999.0,  999.0,    4.2,  999.0,   42.5,   20.7,   -0.8,   -0.4,   -0.9,   -1.2,   -0.7,   -0.6,   -0.4,   -0.9,   -1.0,   -0.7,   -0.5
2000/11/19 15:40,  999.0,    1.2,    3.7,    3.2,  999.0,    1.6,    2.9,    0.6,    1.0,    1.9,    2.1,    0.9,    0.7,  999.0,    1.8,  999.0,    5.2,   26.0,    6.8,  -12.7,   32.0,   35.1,   36.1,   38.0,   41.1,   42.4,  999.0,   19.6,  999.0,   30.6,  999.0,  999.0,  999.0,  999.0,  999.0,   -1.4,   20.5,   41.9,   -0.3,   41.6,   41.8,   20.9,   20.7,   20.4,   20.6,   13.5,   13.3,   20.4,   13.3,   20.2,   13.5,   -0.8,   20.0,  999.0,   -0.6,   -0.8,   20.8,   20.5
2000/11/19 15:50,  999.0,    2.0,    1.4,    1.7,    3.1,    2.9,    1.7,    1.6,    2.1,    2.4,    2.7,  999.0,  999.0,  999.0,  999.0,  999.0,   32.6,  999.0,  999.0,   33.1,   36.6,   42.4,   38.5,   39.0,   39.8,  999.0,  999.0,   41.4,   20.1,   41.8,   -1.6,   -0.5,   -0.7,  999.0,   -0.9,   -1.1,   20.4,  999.0,   27.5,   31.1,   41.6,   41.8,  999.0,   42.0,   41.9,   41.7,   41.7,   42.0,   41.7,   31.4,   42.0,   42.7,   42.8,   27.8,   27.4,   42.0,   20.5,   20.5
2000/11/19 16:00,  999.0,    1.3,    1.6,    2.3,    3.5,    3.6,    2.9,    2.9,  999.0,  999.0,  999.0,  999.0,   21.6,  999.0,  999.0,   26.8,   28.9,   30.8,   34.1,   34.7,   37.7,   38.5,   41.1,   42.1,   41.9,   41.9,   41.7,   41.9,   42.0,   41.8,  999.0,   41.1,   41.4,   41.4,  999.0,  999.0,   41.4,   41.1,   27.4,   41.5,   27.4,   41.8,   34.7,   -0.8,   41.5,   41.4,   34.9,   41.6,   41.7,   27.8,   31.4,   34.9,   41.7,   41.9,   20.3,   41.9,   41.5,   41.6
2000/11/19 16:10,  999.0,    1.6,    2.5,    2.8,    3.1,    3.1,    3.6,    3.6,    2.3,    2.8,  999.0,  999.0,   21.8,   26.3,  999.0,   30.7,   24.4,   33.9,   10.7,   34.1,   -7.2,   -5.3,   -4.0,   18.1,  999.0,   -2.3,   42.4,   41.9,  999.0,   42.0,   -0.1,  999.0,  999.0,   41.7,   -1.2,   42.1,   -0.6,    9.7,   -0.7,   -0.6,   13.3,    6.1,    6.3,    6.2,   13.4,   13.5,  999.0,    9.8,   13.6,   21.1,    9.8,    6.6,   20.6,   -0.1,   -0.2,    6.8,   -0.8,   -0.3
2000/11/19 16:20,  999.0,    2.0,    2.1,    3.2,    3.3,    4.1,    2.7,    2.5,    2.4,    1.7,    1.3,    2.2,  999.0,  999.0,  999.0,  999.0,   30.8,  999.0,   34.1,  999.0,   37.0,   19.1,   19.9,   31.2,   20.5,   -0.4,   42.0,   -0.8,  999.0,   -1.0,  999.0,  999.0,  999.0,  999.0,   -0.8,  999.0,   -0.8,   -0.7,   -0.8,    6.5,   -0.9,   -0.6,   -0.9,   -0.6,   -0.8,   -0.4,   -0.4,   -0.7,   -0.4,   -0.2,   -0.9,   -0.7,   20.6,   -0.6,   -0.7,   -0.3,   13.6,   -0.6
2000/11/19 16:30,  999.0,    2.1,    1.1,    2.2,    2.7,    3.7,    3.6,    3.6,    2.5,  999.0,  999.0,   22.1,   21.3,   21.2,   21.9,   24.4,   27.7,   29.8,   32.9,   26.1,   39.4,  999.0,   34.7,   41.9,   42.3,   41.5,   -0.8,   19.5,   20.0,   20.3,  999.0,  999.0,   -1.2,   -1.2,   -0.4,   -0.6,   -0.4,   -0.7,   -0.5,   -0.4,   -0.7,   -0.6,   -0.7,   -0.5,   -0.2,   -0.8,   -0.9,   -0.7,   -0.8,   -0.5,   -0.4,   -0.6,   -0.9,   -0.8,   -0.8,   -0.5,   -1.0,   -0.2
2000/11/19 16:40,  999.0,    2.9,    2.0,    2.3,    3.3,    3.1,    3.8,    3.5,    3.1,    1.5,  999.0,   21.9,   21.3,   20.5,   22.0,   24.4,   26.7,   29.3,   31.8,   36.1,   38.3,   39.8,   41.0,   41.6,   41.5,   42.2,  999.0,  999.0,  999.0,  999.0,  999.0,  999.0,  999.0,  999.0,  999.0,   -0.8,  999.0,   -0.3,  999.0,  999.0,   -0.6,   -0.9,   -1.0,   -0.1,   -0.3,   -0.6,   -0.4,   -0.5,   -0.7,   -0.9,   -0.9,   -0.5,   -1.0,   -0.9,   -0.6,   -0.8,   -1.1,   -0.8
2000/11/19 16:50,  999.0,  999.0,    4.7,    4.3,    4.3,    4.4,    3.9,    3.6,    3.4,    3.6,    4.0,   22.6,   22.7,   20.6,   28.8,   23.9,   29.0,   31.6,   35.5,   37.0,   39.1,   34.0,   31.5,   20.6,   20.3,   -1.3,   -1.2,   -0.4,  999.0,  999.0,  999.0,  999.0,  999.0,  999.0,  999.0,  999.0,  999.0,  999.0,  999.0,   41.8,  999.0,   -0.7,   -0.8,   -0.4,   -0.7,   -0.6,   -0.6,  999.0,   20.4,   -0.5,   20.5,   -0.9,    6.2,   -0.7,   -0.5,   10.3,   -1.0,  999.0
2000/11/19 17:00,   23.5,   13.9,   10.8,    4.3,    3.3,    2.7,    1.9,    2.1,    1.3,    1.3,   21.8,   23.7,   23.2,   24.5,   23.6,   29.6,   30.9,   33.1,   13.9,   35.3,   26.4,   37.6,   24.4,  999.0,   -0.1,   -0.9,   -0.1,  999.0,  999.0,   -0.6,   -0.4,   -0.5,   -0.8,   -0.6,  999.0,   -1.0,   -0.6,  999.0,  999.0,   -0.9,   -0.4,   -0.5,   -0.5,  999.0,   -0.4,   -0.6,   -1.3,   -0.7,   -0.5,  -10.7,   -0.6,  999.0,   -0.8,   -0.4,  -11.0,   -0.9,    6.4,   -6.6
2000/11/19 17:10,   22.5,   19.9,   13.7,    7.2,    2.1,    0.4,    2.0,    3.8,  999.0,  999.0,   21.5,  999.0,  999.0,   36.3,   38.0,   29.2,   30.2,   37.5,   42.0,   41.9,   42.4,  999.0,   42.4,  999.0,  999.0,  999.0,  999.0,  999.0,  999.0,  999.0,  999.0,  999.0,  999.0,  999.0,  999.0,  999.0,  999.0,  999.0,  999.0,  999.0,  999.0,   -0.9,  999.0,   -1.5,   -0.6,  999.0,   -0.7,   -0.7,   -1.1,  999.0,  999.0,   -0.5,  999.0,  999.0,   -0.3,   -0.6,   -1.0,   -0.2
2000/11/19 17:20,   25.8,   20.3,   14.0,    6.2,    3.4,    2.2,    3.1,    2.6,    2.7,    3.8,    2.8,    1.6,   20.5,   21.0,   22.9,   24.8,   24.8,   28.9,   31.3,   35.8,   38.2,   38.4,   37.8,  999.0,  999.0,  999.0,  999.0,  999.0,  999.0,  999.0,  999.0,  999.0,  999.0,  999.0,  999.0,  999.0,  999.0,  999.0,  999.0,  999.0,  -20.8,  -10.7,  -21.1,  -21.2,   -1.4,  -21.4,  -12.7,  -25.5,  -26.1,  -28.5,  -37.2,    2.3,   -3.2,   -2.2,   -7.6,    1.8,   -4.8,   10.5
2000/11/19 17:30,   20.2,   14.8,    9.5,    4.5,    2.2,    1.6,    2.1,    2.7,    2.7,    2.3,  999.0,  999.0,   21.0,   20.9,   20.9,   23.1,   25.3,   25.7,   28.2,   29.6,   33.3,  999.0,  999.0,  999.0,  999.0,   29.0,  999.0,  999.0,  999.0,   19.8,  999.0,  999.0,  999.0,  999.0,  999.0,  999.0,  999.0,  999.0,  999.0,  999.0,  999.0,   -0.7,  999.0,   -0.8,   -0.7,   -0.2,   -0.8,   -1.1,   -0.7,   -0.9,  999.0,   -0.3,   -1.3,   -0.7,   -0.9,   -0.9,   -0.4,   -0.5
2000/11/19 17:40,   18.8,   12.6,    5.1,    2.7,    3.1,    2.3,    1.6,    2.0,    2.5,    1.1,  999.0,  999.0,  999.0,   20.4,   21.3,   22.3,   23.3,  999.0,   26.2,   28.2,   29.9,  999.0,  999.0,  999.0,  999.0,  999.0,  999.0,  999.0,  999.0,  999.0,  999.0,  999.0,  999.0,  999.0,  999.0,  999.0,  999.0,  999.0,  999.0,  999.0,   -0.6,   -0.1,  999.0,   -0.8,   -1.0,   -1.2,   -0.4,   -1.2,   -0.9,   -0.4,   -0.7,   -0.5,    0.1,   -1.0,  999.0,   -1.0,   -1.2,   -0.5
2000/11/19 17:50,   17.6,   11.5,    5.4,    3.4,    2.7,    2.4,    1.8,    2.1,    2.1,    2.5,    1.2,    0.9,    0.2,    1.9,  999.0,    4.0,    2.7,    3.7,  999.0,  999.0,  999.0,  999.0,  999.0,  999.0,  999.0,  999.0,  999.0,  999.0,  999.0,  999.0,  999.0,  999.0,  999.0,  999.0,  999.0,  999.0,  999.0,  999.0,  999.0,  999.0,    0.1,  999.0,   -0.6,   -0.5,   -0.8,   -0.6,   -0.3,   -0.4,   -0.5,   -1.2,   -0.5,  999.0,   -0.7,   -1.0,   -0.8,  999.0,  999.0,   -0.9
2000/11/19 18:00,   18.5,   16.5,   13.7,    8.3,    6.1,    4.5,    3.3,    2.9,    2.5,    2.5,    1.3,    0.9,    0.8,    1.7,    1.0,    1.2,    3.1,    4.0,  999.0,    5.1,  999.0,  999.0,  999.0,  999.0,  999.0,  999.0,  999.0,  999.0,  999.0,  999.0,  999.0,  999.0,  999.0,  999.0,  999.0,  999.0,  999.0,  999.0,  999.0,  999.0,  999.0,  999.0,   -0.7,   -0.7,   -0.4,   -0.5,   -0.4,   -0.1,   -0.6,   -0.1,   -0.2,   -0.1,   -0.1,   -0.4,   -0.7,   -1.1,   -1.0,   -0.5
2000/11/19 18:10,   21.6,  999.0,   13.9,    6.9,    2.6,    2.4,    2.6,    2.6,    2.5,    2.5,    2.1,    0.8,    1.8,    1.8,    3.4,    3.1,    6.4,    7.6,  999.0,    5.8,    6.7,  999.0,  999.0,  999.0,  999.0,  999.0,  999.0,  999.0,  999.0,  999.0,  999.0,  999.0,  999.0,  999.0,    7.2,  999.0,  999.0,  999.0,  999.0,  999.0,  999.0,   -0.2,   -0.6,  999.0,   -0.3,   -0.6,  999.0,   -0.7,   -1.1,   -0.5,   -1.3,   -0.5,   -0.7,   -1.4,   -1.3,  999.0,   -0.4,   -0.7
2000/11/19 18:20,  999.0,  999.0,   14.8,  999.0,    7.6,    3.5,    4.3,    1.7,    2.1,    2.0,    1.6,    1.3,    1.6,    1.8,    1.9,    2.1,    1.6,    2.3,    3.4,    3.3,    4.3,    6.4,  999.0,  999.0,  999.0,  999.0,  999.0,  999.0,  999.0,  999.0,  999.0,  999.0,  999.0,  999.0,  999.0,  999.0,  999.0,  999.0,  999.0,  999.0,   -0.1,   -0.9,   -0.6,   -0.8,   -0.9,   -0.3,   -0.4,   -0.9,  999.0,   -0.8,   -0.6,   -0.5,   -0.7,   -0.7,   -1.1,   -0.8,   -1.0,   -0.7
2000/11/19 18:30,   18.2,  999.0,   14.2,  999.0,    7.8,    3.9,    3.3,    4.1,    3.5,   -0.3,    0.0,   -0.5,  999.0,   -0.8,    1.0,    0.8,    2.7,    1.2,    7.6,  999.0,    4.7,   10.6,  999.0,  999.0,  999.0,  999.0,  999.0,  999.0,  999.0,  999.0,  999.0,  999.0,  999.0,  999.0,  999.0,  999.0,  999.0,  999.0,  999.0,  999.0,  999.0,  999.0,   -0.5,  999.0,   -0.3,  999.0,  999.0,   -0.8,   -1.6,  999.0,  999.0,   -1.4,  999.0,   -0.3,   -0.5,   -0.8,  999.0,  999.0
2000/11/19 18:40,   20.9,   17.8,   15.1,   11.7,    8.2,    4.6,    2.7,    1.7,    0.8,    1.5,   -1.9,    0.2,    2.1,    1.8,    2.8,    1.4,    1.1,    3.9,  999.0,    4.6,  999.0,  999.0,  999.0,  999.0,  999.0,  999.0,  999.0,  999.0,  999.0,  999.0,  999.0,  999.0,  999.0,  999.0,  999.0,  999.0,  999.0,  999.0,  999.0,  999.0,  999.0,  999.0,  999.0,  999.0,  999.0,   -0.7,   -1.4,  999.0,  999.0,  999.0,  999.0,  999.0,  999.0,   -0.4,  999.0,  999.0,   -0.9,  999.0
2000/11/19 18:50,   18.9,   16.8,   11.5,    8.9,    6.2,    5.0,    1.1,    0.6,    1.0,    1.4,  999.0,    1.9,    2.4,    2.6,    2.2,    3.3,    5.1,    5.7,    7.5,    7.7,  999.0,  999.0,  999.0,  999.0,  999.0,  999.0,  999.0,  999.0,  999.0,  999.0,  999.0,  999.0,  999.0,  999.0,  999.0,  999.0,  999.0,  999.0,  999.0,  999.0,  999.0,  999.0,  999.0,  999.0,  999.0,  999.0,  999.0,  999.0,  999.0,  999.0,  999.0,  999.0,  999.0,  999.0,   -0.8,  999.0,   -0.9,   -1.3
2000/11/19 19:00,   17.5,   17.3,   14.6,   13.1,    9.4,    6.7,    2.9,    1.9,    3.3,    1.9,    1.1,   -0.6,    2.3,    1.7,    0.4,    2.7,    2.6,    0.8,  999.0,    3.6,  999.0,  999.0,  999.0,  999.0,  999.0,  999.0,  999.0,  999.0,  999.0,  999.0,  999.0,  999.0,  999.0,  999.0,  999.0,  999.0,  999.0,  999.0,   -0.7,  999.0,  999.0,   -0.3,   -0.7,  999.0,  999.0,  999.0,   -0.4,   -0.4,   -0.5,   -0.3,   -0.9,   -1.6,   -0.3,   -0.3,   -0.5,   -0.7,   -1.3,   -0.5
2000/11/19 19:10,   19.4,   18.2,   17.1,    9.0,    6.5,    5.4,    5.7,    4.9,    3.4,    2.4,    2.9,  999.0,    1.2,    1.8,    3.2,    3.9,    3.3,    8.0,  999.0,  999.0,    6.7,  999.0,  999.0,  999.0,  999.0,  999.0,  999.0,  999.0,  999.0,  999.0,  999.0,  999.0,  999.0,  999.0,  999.0,  999.0,  999.0,  999.0,  999.0,  999.0,  999.0,  999.0,  999.0,  999.0,  999.0,  999.0,   -0.8,  999.0,  999.0,  999.0,   -1.4,   -0.6,   -0.8,  999.0,  999.0,  999.0,  999.0,   -0.7
2000/11/19 19:20,   17.5,   21.7,   15.3,    7.1,    9.5,    5.4,    3.6,    3.4,    2.7,    3.4,    1.9,    3.0,  999.0,    1.5,    3.0,    2.7,    4.0,    7.4,  999.0,    8.6,  999.0,  999.0,  999.0,  999.0,  999.0,  999.0,  999.0,  999.0,  999.0,  999.0,  999.0,  999.0,  999.0,  999.0,  999.0,  999.0,  999.0,  999.0,  999.0,   -0.0,   -0.5,   -0.6,   -0.7,   -1.0,   -0.3,  999.0,   -0.4,   -0.4,   -0.5,   -0.5,   -1.3,   -0.5,   -1.2,   -0.7,  999.0,    0.6,   -0.5,   -0.9
2000/11/19 19:30,   17.4,   15.3,   17.6,   16.9,    5.5,    9.3,    4.1,    2.8,    2.6,    2.3,    0.7,    2.1,    0.6,    0.7,    1.0,    2.1,    3.4,    5.5,  999.0,  999.0,  999.0,  999.0,  999.0,  999.0,  999.0,  999.0,  999.0,  999.0,  999.0,  999.0,  999.0,  999.0,  999.0,  999.0,  999.0,  999.0,  999.0,  999.0,   -0.8,   -0.8,  999.0,   -1.0,   -0.7,   -0.8,   -1.2,  999.0,  999.0,   -1.0,   -0.2,  999.0,   -0.4,   -0.6,   -0.4,   -0.5,   -0.9,   -1.2,   -0.6,  999.0
2000/11/19 19:40,  999.0,  999.0,  999.0,    8.4,    4.2,    4.3,    0.8,   -0.4,    2.7,    2.1,    0.9,    1.6,    0.1,    1.2,    2.0,    1.8,    3.9,    2.2,  999.0,  999.0,  999.0,  999.0,  999.0,  999.0,  999.0,  999.0,  999.0,  999.0,  999.0,  999.0,  999.0,  999.0,  999.0,  999.0,  999.0,  999.0,  999.0,  999.0,   -0.6,  999.0,   -0.3,   -0.3,   -0.3,   -0.4,  999.0,  999.0,   -0.2,   -0.6,   -1.6,   -0.8,   -0.9,   -1.8,  999.0,   -0.7,   -0.3,  999.0,   -0.8,   -0.1
2000/11/19 19:50,   23.9,   22.6,   15.4,    9.0,   11.8,    6.1,    3.2,    0.5,    2.0,    0.3,   -0.1,    0.5,    2.5,    0.9,    1.3,    3.1,  999.0,  999.0,  999.0,  999.0,  999.0,  999.0,  999.0,  999.0,  999.0,  999.0,  999.0,  999.0,  999.0,  999.0,  999.0,  999.0,  999.0,  999.0,  999.0,  999.0,  999.0,   -4.6,   -3.9,  999.0,   -1.2,   -3.4,   -1.2,   -1.4,  999.0,   -0.5,   -0.7,   -0.4,   -1.0,   -0.8,  999.0,   -0.3,   -0.8,  999.0,   -0.8,   -1.2,   -1.3,    0.6
2000/11/19 20:00,   21.3,   18.4,   15.7,    8.9,    9.7,    9.2,   -0.0,    4.0,    4.9,    0.6,    0.2,   -0.1,    3.0,    2.5,    1.9,    2.1,  999.0,  999.0,  999.0,    4.7,  999.0,  999.0,  999.0,  999.0,  999.0,  999.0,  999.0,  999.0,  999.0,  999.0,  999.0,  999.0,  999.0,  999.0,  999.0,  999.0,  999.0,  999.0,  999.0,  999.0,  999.0,   -0.7,  999.0,  999.0,   -1.1,  999.0,  999.0,  999.0,  999.0,   -1.3,  999.0,  999.0,  999.0,   -0.2,  999.0,   -1.2,  999.0,  999.0
2000/11/19 20:10,   21.0,   11.3,  999.0,    5.4,    5.2,    8.0,    2.8,    3.2,    5.0,    2.4,    0.7,    0.8,    4.5,    5.3,  999.0,    0.9,    2.8,  999.0,  999.0,  999.0,  999.0,  999.0,  999.0,  999.0,  999.0,  999.0,  999.0,  999.0,  999.0,  999.0,  999.0,  999.0,  999.0,  999.0,  999.0,  999.0,  999.0,  999.0,  999.0,  999.0,  999.0,  999.0,  999.0,  999.0,  999.0,  999.0,  999.0,  999.0,  999.0,  999.0,  999.0,  999.0,  999.0,  999.0,  999.0,  999.0,  999.0,  999.0
2000/11/19 20:20,   16.7,  999.0,  999.0,   -0.4,    0.6,    7.7,    6.6,    3.6,    2.3,   -0.2,   -2.3,    1.7,    0.3,    4.8,  999.0,    1.9,  999.0,  999.0,  999.0,  999.0,    2.9,  999.0,  999.0,  999.0,  999.0,  999.0,  999.0,  999.0,  999.0,  999.0,  999.0,  999.0,  999.0,  999.0,  999.0,  999.0,  999.0,  999.0,  999.0,  999.0,  999.0,  999.0,  999.0,  999.0,  999.0,   42.1,  999.0,   42.1,  999.0,  999.0,  999.0,  999.0,  999.0,  999.0,  999.0,  999.0,  999.0,  999.0
2000/11/19 20:30,   21.7,  999.0,  999.0,   15.6,    2.8,    7.3,    7.5,    9.2,    5.5,  999.0,  999.0,   -1.3,    2.1,    3.8,    2.8,  999.0,    8.8,  999.0,  999.0,  999.0,  999.0,  999.0,  999.0,  999.0,   30.8,  999.0,  999.0,  999.0,  999.0,  999.0,  999.0,  999.0,  999.0,   38.7,  999.0,   39.6,  999.0,   41.1,  999.0,  999.0,  999.0,  999.0,  999.0,  999.0,  999.0,   41.5,  999.0,   41.9,  999.0,  999.0,  999.0,  999.0,  999.0,  999.0,   42.2,   41.7,  999.0,   42.1
2000/11/19 20:40,  999.0,   22.7,   10.4,    1.5,    6.5,  999.0,  999.0,    6.6,  999.0,  999.0,    1.6,   -0.9,    4.2,  999.0,  999.0,  999.0,    5.2,  999.0,  999.0,  999.0,  999.0,  999.0,  999.0,  999.0,  999.0,  999.0,  999.0,  999.0,  999.0,  999.0,  999.0,  999.0,  999.0,   39.8,  999.0,  999.0,  999.0,   41.7,  999.0,  999.0,   41.9,  999.0,  999.0,  999.0,  999.0,   42.7,  999.0,  999.0,   41.4,  999.0,  999.0,  999.0,  999.0,  999.0,   41.2,  999.0,   41.7,   41.3
2000/11/19 20:50,   17.9,   22.1,   16.1,   19.3,   10.4,  999.0,   12.6,    5.6,    2.2,    1.5,    1.7,    1.3,    4.9,    0.6,    5.8,  999.0,  999.0,  999.0,  999.0,  999.0,    9.9,    9.3,  999.0,  999.0,  999.0,  999.0,  999.0,  999.0,  999.0,  999.0,  999.0,  999.0,  999.0,  999.0,  999.0,  999.0,  999.0,  999.0,  999.0,  999.0,  999.0,  999.0,  999.0,  999.0,  999.0,  999.0,  999.0,  999.0,  999.0,  999.0,  999.0,  999.0,  999.0,  999.0,  999.0,  999.0,  999.0,  999.0
2000/11/19 21:00,   17.6,   20.7,   17.7,   18.5,  999.0,   13.8,   11.0,   11.0,   10.1,  999.0,    3.3,    5.4,    5.8,    0.0,    2.9,  999.0,    5.1,  999.0,  999.0,  999.0,    7.7,  999.0,  999.0,  999.0,  999.0,  999.0,  999.0,  999.0,  999.0,  999.0,  999.0,  999.0,  999.0,  999.0,  999.0,  999.0,  999.0,  999.0,  999.0,  999.0,  999.0,  999.0,  999.0,  999.0,  999.0,  999.0,   -0.8,  999.0,  999.0,  999.0,   -0.8,  999.0,  999.0,  999.0,  999.0,  999.0,  999.0,  999.0
2000/11/19 21:10,   21.8,  999.0,  999.0,  999.0,    8.9,    8.6,    5.8,    4.8,    3.2,    2.1,    2.1,    0.5,    1.9,  999.0,    1.8,  999.0,    3.1,  999.0,  999.0,  999.0,  999.0,  999.0,  999.0,  999.0,  999.0,  999.0,  999.0,  999.0,  999.0,  999.0,  999.0,  999.0,  999.0,  999.0,  999.0,  999.0,  999.0,  999.0,  999.0,  999.0,  999.0,   -1.5,  999.0,  999.0,  999.0,  999.0,  999.0,  999.0,  999.0,   -0.7,   -1.3,  999.0,  999.0,  999.0,  999.0,  999.0,  999.0,  999.0
2000/11/19 21:20,   24.2,  999.0,  999.0,   18.6,   18.9,    9.1,    3.9,    2.0,    6.1,    3.1,    3.9,    2.0,    6.0,   -0.9,    4.1,    3.1,  999.0,  999.0,  999.0,  999.0,  999.0,  999.0,  999.0,  999.0,  999.0,  999.0,  999.0,  999.0,  999.0,  999.0,  999.0,  999.0,  999.0,   35.9,  999.0,  999.0,  999.0,  999.0,   40.9,  999.0,  999.0,  999.0,   41.9,   42.2,   42.1,   41.8,  999.0,   43.0,   42.6,  999.0,  999.0,  999.0,  999.0,  999.0,  999.0,  999.0,  999.0,  999.0
2000/11/19 21:30,   23.3,   22.3,   20.2,   15.3,    9.1,    9.2,   10.3,  999.0,    4.3,    6.7,    5.0,    6.3,    6.9,    5.2,  999.0,    7.0,  999.0,  999.0,   11.1,  999.0,  999.0,  999.0,  999.0,  999.0,  999.0,  999.0,  999.0,  999.0,   35.0,  999.0,  999.0,   37.8,  999.0,   39.7,  999.0,  999.0,  999.0,   42.0,   42.2,  999.0,   41.9,  999.0,  999.0,  999.0,   42.1,   41.9,  999.0,  999.0,  999.0,  999.0,  999.0,  999.0,  999.0,  999.0,  999.0,  999.0,  999.0,  999.0
2000/11/19 21:40,  999.0,  999.0,  999.0,  999.0,    5.1,    7.4,  999.0,    0.2,    4.6,    2.1,  999.0,    4.6,  999.0,    1.4,  999.0,    8.4,  999.0,   10.6,   11.3,  999.0,  999.0,  999.0,  999.0,  999.0,  999.0,   18.9,  999.0,  999.0,  999.0,  999.0,   37.1,   37.7,  999.0,  999.0,  999.0,  999.0,   42.8,  999.0,  999.0,  999.0,  999.0,  999.0,   42.4,   41.4,   42.0,  999.0,  999.0,  999.0,  999.0,  999.0,  999.0,  999.0,  999.0,   41.3,  999.0,   41.7,  999.0,  999.0
2000/11/19 21:50,  999.0,   20.2,  999.0,   17.8,    6.0,    7.6,  999.0,    3.7,    2.5,   -1.0,    3.1,    3.3,    3.9,    5.7,    6.4,    7.7,    7.0,    5.0,  999.0,    8.7,  999.0,    7.2,  999.0,  999.0,  999.0,  999.0,  999.0,  999.0,   33.0,   34.9,   35.9,   37.0,  999.0,  999.0,  999.0,  999.0,  999.0,   41.7,  999.0,  999.0,   41.7,  999.0,   41.3,   42.6,   40.8,  999.0,  999.0,  999.0,  999.0,  999.0,  999.0,  999.0,  999.0,   40.8,  999.0,  999.0,   41.3,  999.0
2000/11/19 22:00,   10.2,  999.0,  999.0,   11.9,  999.0,  999.0,    9.2,    0.5,  999.0,  999.0,    0.4,  999.0,    1.5,    1.8,    7.9,  999.0,  999.0,  999.0,    9.7,    9.7,  999.0,  999.0,  999.0,   10.0,  999.0,  999.0,  999.0,  999.0,  999.0,  999.0,  999.0,  999.0,  999.0,  999.0,  999.0,  999.0,  999.0,  999.0,  999.0,  999.0,  999.0,  999.0,  999.0,  999.0,  999.0,  999.0,  999.0,  999.0,  999.0,  999.0,  999.0,  999.0,  999.0,  999.0,  999.0,  999.0,  999.0,  999.0
2000/11/19 22:10,   17.7,   10.2,  999.0,  999.0,    1.2,   -0.5,  999.0,    0.5,  999.0,  999.0,  999.0,   -4.8,    3.6,    5.6,    4.2,  999.0,    3.6,   11.0,  999.0,  999.0,    6.3,  999.0,  999.0,  999.0,  999.0,  999.0,  999.0,  999.0,  999.0,  999.0,  999.0,  999.0,  999.0,  999.0,  999.0,  999.0,  999.0,  999.0,  999.0,  999.0,  999.0,  999.0,  999.0,  999.0,  999.0,  999.0,  999.0,  999.0,  999.0,   41.4,   42.2,   42.2,   41.7,   41.5,   41.6,   42.1,  999.0,   41.8
2000/11/19 22:20,  999.0,  999.0,    1.2,    7.6,    2.8,    4.2,    8.6,   -2.0,    8.3,    4.1,    0.9,   -0.4,   -2.1,    3.2,  999.0,  999.0,  999.0,  999.0,  999.0,  999.0,    4.0,  999.0,  999.0,  999.0,  999.0,  999.0,  999.0,  999.0,  999.0,  999.0,  999.0,  999.0,  999.0,  999.0,  999.0,  999.0,  999.0,  999.0,  999.0,  999.0,  999.0,  999.0,  999.0,  999.0,  999.0,  999.0,   40.5,   41.5,  999.0,  999.0,  999.0,  999.0,   42.3,   41.9,   42.1,  999.0,   41.8,  999.0
2000/11/19 22:30,  999.0,  999.0,   -2.0,  999.0,    2.4,   -1.7,    2.8,    0.2,    4.7,    6.9,    3.9,    5.8,    1.6,    0.2,    5.6,    2.8,    0.5,  999.0,  999.0,  999.0,  999.0,  999.0,  999.0,  999.0,  999.0,  999.0,  999.0,  999.0,  999.0,  999.0,  999.0,  999.0,  999.0,  999.0,  999.0,  999.0,  999.0,  999.0,  999.0,  999.0,  999.0,  999.0,  999.0,  999.0,  999.0,  999.0,  999.0,  999.0,  999.0,  999.0,  999.0,  999.0,  999.0,  999.0,  999.0,  999.0,  999.0,  999.0
2000/11/19 22:40,  999.0,    6.8,  999.0,  999.0,    5.7,    1.8,    0.8,   -1.8,    7.7,    1.8,    2.4,    1.3,    1.8,    2.1,    8.5,    4.9,  999.0,  999.0,  999.0,  999.0,  999.0,    5.7,  999.0,  999.0,  999.0,  999.0,  999.0,   13.6,  999.0,  999.0,  999.0,  999.0,  999.0,  999.0,   21.8,  999.0,  999.0,  999.0,  999.0,  999.0,  999.0,  999.0,  999.0,  999.0,  999.0,  999.0,  999.0,  999.0,  999.0,  999.0,  999.0,   41.9,   41.4,   41.8,   41.2,   40.4,   41.9,  999.0
2000/11/19 22:50,  999.0,    1.6,    3.2,    5.5,    7.2,    5.3,    4.1,    6.2,    8.2,    7.0,    4.6,    6.4,   -1.0,    1.5,    3.3,    5.0,  999.0,  999.0,  999.0,  999.0,  999.0,    5.8,    6.1,  999.0,  999.0,  999.0,  999.0,  999.0,  999.0,  999.0,  999.0,  999.0,  999.0,  999.0,  999.0,  999.0,  999.0,  999.0,  999.0,  999.0,  999.0,  999.0,  999.0,  999.0,  999.0,  999.0,   40.5,   41.0,   42.0,   42.2,   41.7,   42.2,   41.4,   42.3,   41.6,   41.5,   41.9,   42.0
2000/11/19 23:00,  999.0,  999.0,  999.0,   -1.8,    1.6,    4.6,    4.0,    1.4,    4.5,    3.7,    3.9,   -2.9,   -2.3,   -0.0,    1.2,    2.7,    4.6,  999.0,    0.7,  999.0,    4.5,  999.0,    3.7,    8.9,    9.6,  999.0,  999.0,  999.0,  999.0,  999.0,  999.0,  999.0,  999.0,  999.0,  999.0,  999.0,  999.0,  999.0,  999.0,  999.0,  999.0,  999.0,  999.0,  999.0,  999.0,  999.0,   40.8,   41.1,  999.0,   43.1,   42.3,   42.1,   42.0,  999.0,  999.0,  999.0,   41.3,   42.0
2000/11/19 23:10,  999.0,    4.2,  999.0,   -5.9,   -1.0,   -1.4,   -1.8,  999.0,    6.8,    0.3,    1.0,    2.7,   10.1,  999.0,  999.0,    2.8,    3.1,  999.0,   -0.3,   -1.2,  999.0,  999.0,  999.0,  999.0,  999.0,  999.0,  999.0,  999.0,  999.0,  999.0,  999.0,  999.0,  999.0,  999.0,  999.0,  999.0,  999.0,  999.0,  999.0,  999.0,  999.0,  999.0,  999.0,  999.0,  999.0,  999.0,  999.0,  999.0,  999.0,  999.0,  999.0,  999.0,  999.0,  999.0,  999.0,  999.0,  999.0,  999.0
2000/11/19 23:20,  999.0,    1.4,    2.1,  999.0,   -1.9,    8.1,    2.6,    7.9,    7.6,  999.0,  999.0,    4.7,    2.9,  999.0,   11.2,   10.6,    5.4,  999.0,   11.0,  999.0,  999.0,  999.0,  999.0,  999.0,  999.0,  999.0,  999.0,  999.0,  999.0,  999.0,  999.0,  999.0,  999.0,  999.0,  999.0,  999.0,  999.0,  999.0,  999.0,  999.0,  999.0,    0.7,    0.2,  999.0,  999.0,    0.5,  999.0,  999.0,  999.0,    0.7,  999.0,  999.0,  999.0,    0.8,  999.0,  999.0,    0.7,  999.0
2000/11/19 23:30,  999.0,  999.0,    0.1,   -1.9,    2.2,    0.5,    1.7,    1.7,    4.3,    5.1,    3.4,    3.7,    2.3,    3.1,    3.0,    8.0,    4.8,    4.1,   19.8,  999.0,  999.0,  999.0,  999.0,  999.0,  999.0,   -0.6,  999.0,  999.0,  999.0,  999.0,  999.0,  999.0,  999.0,  999.0,  999.0,  999.0,  999.0,  999.0,  999.0,  999.0,  999.0,  999.0,    0.7,  999.0,  999.0,  999.0,   40.8,    1.3,   21.5,  999.0,   41.9,   41.3,  999.0,  999.0,  999.0,  999.0,  999.0,  999.0
2000/11/19 23:40,  999.0,  999.0,    3.0,   -2.4,    2.4,    3.0,    3.6,    4.8,    8.4,    5.4,    2.0,    4.4,    4.2,    1.7,  999.0,    2.1,    9.8,   11.2,  999.0,    5.5,   10.5,  999.0,  999.0,  999.0,  999.0,   12.5,  999.0,  999.0,  999.0,  999.0,  999.0,  999.0,    6.4,  999.0,  999.0,    2.6,  999.0,  999.0,  999.0,  999.0,  999.0,  999.0,  999.0,    1.6,    0.8,    0.5,  999.0,    0.7,    0.9,    0.9,  999.0,  999.0,    0.7,  999.0,    1.1,  999.0,    0.4,    0.6
2000/11/19 23:50,  999.0,  999.0,  999.0,  999.0,    1.4,    2.3,    3.8,    3.7,   -0.9,    1.9,    1.9,    1.6,  999.0,    3.8,    3.0,  999.0,  999.0,    4.0,    3.6,  999.0,  999.0,  999.0,  999.0,  999.0,  999.0,   12.9,  999.0,  999.0,  999.0,  999.0,  999.0,  999.0,  999.0,  999.0,  999.0,  999.0,  999.0,  999.0,    1.2,  999.0,  999.0,    0.4,    0.8,    0.8,    1.1,  999.0,   -0.0,  999.0,    1.4,    0.8,    0.5,    0.6,    0.6,    0.6,    0.5,    0.2,    0.7,  999.0
